Time,TemperatureF,DewpointF,PressureIn,WindDirection,WindDirectionDegrees,WindSpeedMPH,WindSpeedGustMPH,Humidity,HourlyPrecipIn,Conditions,Clouds,dailyrainin,SoftwareType,DateUTC
2013-03-27 00:00:00,34.3,28.4,29.70,WNW,292,0.0,0.0,79,0.00,,,0.00,WUHU21623XXSP,2013-03-27 04:00:00,
2013-03-27 00:05:00,34.2,28.8,29.70,WNW,292,0.0,0.0,80,0.00,,,0.00,WUHU21623XXSP,2013-03-27 04:05:00,
2013-03-27 00:10:00,34.3,28.8,29.70,WNW,292,0.0,0.0,80,0.00,,,0.00,WUHU21623XXSP,2013-03-27 04:10:00,
2013-03-27 00:15:00,34.2,28.6,29.70,West,270,0.0,0.0,80,0.00,,,0.00,WUHU21623XXSP,2013-03-27 04:15:00,
2013-03-27 00:16:00,34.2,28.6,29.70,West,270,0.0,0.0,80,0.00,,,0.00,WUHU21623XXSP,2013-03-27 04:16:00,
2013-03-27 00:20:00,34.0,28.4,29.70,WNW,292,0.0,0.0,80,0.00,,,0.00,WUHU21623XXSP,2013-03-27 04:20:00,
2013-03-27 00:21:00,34.0,28.4,29.71,WNW,292,0.0,0.0,80,0.00,,,0.00,WUHU21623XXSP,2013-03-27 04:21:00,
2013-03-27 00:25:00,34.0,28.4,29.71,West,270,0.0,0.0,80,0.00,,,0.00,WUHU21623XXSP,2013-03-27 04:25:00,
2013-03-27 00:26:00,34.0,28.4,29.71,West,270,0.0,0.0,80,0.00,,,0.00,WUHU21623XXSP,2013-03-27 04:26:00,
2013-03-27 00:27:00,34.0,28.4,29.71,West,270,0.0,0.0,80,0.00,,,0.00,WUHU21623XXSP,2013-03-27 04:27:00,
2013-03-27 00:30:00,34.0,28.4,29.71,WNW,292,0.0,0.0,80,0.00,,,0.00,WUHU21623XXSP,2013-03-27 04:30:00,
2013-03-27 00:32:00,33.8,28.2,29.71,WNW,292,0.0,0.0,80,0.00,,,0.00,WUHU21623XXSP,2013-03-27 04:32:00,
2013-03-27 00:35:00,33.8,28.2,29.71,WNW,292,0.0,0.0,80,0.00,,,0.00,WUHU21623XXSP,2013-03-27 04:35:00,
2013-03-27 00:37:00,33.8,28.2,29.71,WNW,292,0.0,0.0,80,0.00,,,0.00,WUHU21623XXSP,2013-03-27 04:37:00,
2013-03-27 00:41:00,33.8,28.2,29.71,WNW,292,0.0,0.0,80,0.00,,,0.00,WUHU21623XXSP,2013-03-27 04:41:00,
2013-03-27 00:42:00,33.8,28.2,29.71,WNW,292,0.0,0.0,80,0.00,,,0.00,WUHU21623XXSP,2013-03-27 04:42:00,
2013-03-27 00:47:00,33.6,28.1,29.71,West,270,0.0,0.0,80,0.00,,,0.00,WUHU21623XXSP,2013-03-27 04:47:00,
2013-03-27 00:52:00,33.6,28.1,29.71,WNW,292,0.0,0.0,80,0.00,,,0.00,WUHU21623XXSP,2013-03-27 04:52:00,
2013-03-27 00:53:00,33.6,28.1,29.71,WNW,292,0.0,0.0,80,0.00,,,0.00,WUHU21623XXSP,2013-03-27 04:53:00,
2013-03-27 00:57:00,33.6,28.1,29.71,WNW,292,0.0,0.0,80,0.00,,,0.00,WUHU21623XXSP,2013-03-27 04:57:00,
2013-03-27 00:58:00,33.6,28.1,29.71,WNW,292,0.0,0.0,80,0.00,,,0.00,WUHU21623XXSP,2013-03-27 04:58:00,
2013-03-27 01:02:00,33.6,28.3,29.71,WNW,292,0.0,0.0,81,0.00,,,0.00,WUHU21623XXSP,2013-03-27 05:02:00,
2013-03-27 01:03:00,33.6,28.3,29.71,WNW,292,0.0,0.0,81,0.00,,,0.00,WUHU21623XXSP,2013-03-27 05:03:00,
2013-03-27 01:07:00,33.6,28.3,29.71,West,270,0.0,0.0,81,0.00,,,0.00,WUHU21623XXSP,2013-03-27 05:07:00,
2013-03-27 01:08:00,33.6,28.3,29.71,West,270,0.0,0.0,81,0.00,,,0.00,WUHU21623XXSP,2013-03-27 05:08:00,
2013-03-27 01:12:00,33.6,28.3,29.71,WNW,292,0.0,0.0,81,0.00,,,0.00,WUHU21623XXSP,2013-03-27 05:12:00,
2013-03-27 01:13:00,33.6,28.3,29.71,WNW,292,0.0,0.0,81,0.00,,,0.00,WUHU21623XXSP,2013-03-27 05:13:00,
2013-03-27 01:14:00,33.6,28.3,29.71,West,270,0.0,0.0,81,0.00,,,0.00,WUHU21623XXSP,2013-03-27 05:14:00,
2013-03-27 01:17:00,33.6,28.3,29.71,WNW,292,0.0,0.0,81,0.00,,,0.00,WUHU21623XXSP,2013-03-27 05:17:00,
2013-03-27 01:19:00,33.6,28.3,29.71,West,270,0.0,0.0,81,0.00,,,0.00,WUHU21623XXSP,2013-03-27 05:19:00,
2013-03-27 01:22:00,33.6,28.3,29.71,West,270,0.0,0.0,81,0.00,,,0.00,WUHU21623XXSP,2013-03-27 05:22:00,
2013-03-27 01:23:00,33.4,28.2,29.71,West,270,0.0,0.0,81,0.00,,,0.00,WUHU21623XXSP,2013-03-27 05:23:00,
2013-03-27 01:24:00,33.4,28.2,29.71,West,270,0.0,0.0,81,0.00,,,0.00,WUHU21623XXSP,2013-03-27 05:24:00,
2013-03-27 01:27:00,33.4,28.2,29.71,WNW,292,0.0,0.0,81,0.00,,,0.00,WUHU21623XXSP,2013-03-27 05:27:00,
2013-03-27 01:28:00,33.4,28.2,29.71,WNW,292,0.0,0.0,81,0.00,,,0.00,WUHU21623XXSP,2013-03-27 05:28:00,
2013-03-27 01:29:00,33.4,28.2,29.71,WNW,292,0.0,0.0,81,0.00,,,0.00,WUHU21623XXSP,2013-03-27 05:29:00,
2013-03-27 01:33:00,33.4,28.2,29.71,WNW,292,0.0,0.0,81,0.00,,,0.00,WUHU21623XXSP,2013-03-27 05:33:00,
2013-03-27 01:34:00,33.6,28.3,29.71,WNW,292,0.0,0.0,81,0.00,,,0.00,WUHU21623XXSP,2013-03-27 05:34:00,
2013-03-27 01:38:00,33.4,28.2,29.71,WNW,292,0.0,0.0,81,0.00,,,0.00,WUHU21623XXSP,2013-03-27 05:38:00,
2013-03-27 01:39:00,33.4,28.2,29.71,WNW,292,0.0,0.0,81,0.00,,,0.00,WUHU21623XXSP,2013-03-27 05:39:00,
2013-03-27 01:43:00,33.4,28.2,29.71,WNW,292,0.0,0.0,81,0.00,,,0.00,WUHU21623XXSP,2013-03-27 05:43:00,
2013-03-27 01:44:00,33.4,28.2,29.71,WNW,292,0.0,0.0,81,0.00,,,0.00,WUHU21623XXSP,2013-03-27 05:44:00,
2013-03-27 01:45:00,33.4,28.2,29.71,WNW,292,0.0,0.0,81,0.00,,,0.00,WUHU21623XXSP,2013-03-27 05:45:00,
2013-03-27 01:48:00,33.4,28.2,29.71,WNW,292,0.0,0.0,81,0.00,,,0.00,WUHU21623XXSP,2013-03-27 05:48:00,
2013-03-27 01:50:00,33.3,28.0,29.71,West,270,0.0,0.0,81,0.00,,,0.00,WUHU21623XXSP,2013-03-27 05:50:00,
2013-03-27 01:54:00,33.3,28.0,29.71,WNW,292,0.0,0.0,81,0.00,,,0.00,WUHU21623XXSP,2013-03-27 05:54:00,
2013-03-27 01:55:00,33.3,28.0,29.71,West,270,0.0,0.0,81,0.00,,,0.00,WUHU21623XXSP,2013-03-27 05:55:00,
2013-03-27 01:56:00,33.3,28.0,29.71,West,270,0.0,0.0,81,0.00,,,0.00,WUHU21623XXSP,2013-03-27 05:56:00,
2013-03-27 01:59:00,33.1,28.0,29.71,West,270,0.0,0.0,81,0.00,,,0.00,WUHU21623XXSP,2013-03-27 05:59:00,
2013-03-27 02:00:00,33.1,27.9,29.71,West,270,0.0,0.0,81,0.00,,,0.00,WUHU21623XXSP,2013-03-27 06:00:00,
2013-03-27 02:03:00,33.1,27.9,29.71,West,270,0.0,0.0,81,0.00,,,0.00,WUHU21623XXSP,2013-03-27 06:03:00,
2013-03-27 02:04:00,33.1,27.9,29.71,WNW,292,0.0,0.0,81,0.00,,,0.00,WUHU21623XXSP,2013-03-27 06:04:00,
2013-03-27 02:05:00,33.1,27.9,29.71,WNW,292,0.0,0.0,81,0.00,,,0.00,WUHU21623XXSP,2013-03-27 06:05:00,
2013-03-27 02:08:00,33.3,28.0,29.71,WNW,292,0.0,0.0,81,0.00,,,0.00,WUHU21623XXSP,2013-03-27 06:08:00,
2013-03-27 02:09:00,33.3,28.0,29.71,WNW,292,0.0,0.0,81,0.00,,,0.00,WUHU21623XXSP,2013-03-27 06:09:00,
2013-03-27 02:10:00,33.3,28.0,29.71,WNW,292,0.0,0.0,81,0.00,,,0.00,WUHU21623XXSP,2013-03-27 06:10:00,
2013-03-27 02:13:00,33.3,28.0,29.71,WNW,292,0.0,0.0,81,0.00,,,0.00,WUHU21623XXSP,2013-03-27 06:13:00,
2013-03-27 02:14:00,33.3,28.0,29.71,WNW,292,0.0,0.0,81,0.00,,,0.00,WUHU21623XXSP,2013-03-27 06:14:00,
2013-03-27 02:15:00,33.3,28.0,29.71,WNW,292,0.0,0.0,81,0.00,,,0.00,WUHU21623XXSP,2013-03-27 06:15:00,
2013-03-27 02:19:00,33.3,28.0,29.71,WNW,292,0.0,0.0,81,0.00,,,0.00,WUHU21623XXSP,2013-03-27 06:19:00,
2013-03-27 02:20:00,33.3,28.0,29.71,WNW,292,0.0,0.0,81,0.00,,,0.00,WUHU21623XXSP,2013-03-27 06:20:00,
2013-03-27 02:21:00,33.3,28.0,29.71,WNW,292,0.0,0.0,81,0.00,,,0.00,WUHU21623XXSP,2013-03-27 06:21:00,
2013-03-27 02:24:00,33.3,28.0,29.71,WNW,292,0.0,0.0,81,0.00,,,0.00,WUHU21623XXSP,2013-03-27 06:24:00,
2013-03-27 02:25:00,33.3,28.0,29.71,WNW,292,0.0,0.0,81,0.00,,,0.00,WUHU21623XXSP,2013-03-27 06:25:00,
2013-03-27 02:26:00,33.3,28.0,29.71,WNW,292,0.0,0.0,81,0.00,,,0.00,WUHU21623XXSP,2013-03-27 06:26:00,
2013-03-27 02:29:00,33.3,28.0,29.71,WNW,292,0.0,0.0,81,0.00,,,0.00,WUHU21623XXSP,2013-03-27 06:29:00,
2013-03-27 02:30:00,33.4,28.0,29.71,WNW,292,0.0,0.0,81,0.00,,,0.00,WUHU21623XXSP,2013-03-27 06:30:00,
2013-03-27 02:32:00,33.4,28.2,29.71,WNW,292,0.0,0.0,81,0.00,,,0.00,WUHU21623XXSP,2013-03-27 06:32:00,
2013-03-27 02:34:00,33.4,28.2,29.71,WNW,292,0.0,0.0,81,0.00,,,0.00,WUHU21623XXSP,2013-03-27 06:34:00,
2013-03-27 02:35:00,33.4,28.2,29.71,WNW,292,0.0,0.0,81,0.00,,,0.00,WUHU21623XXSP,2013-03-27 06:35:00,
2013-03-27 02:37:00,33.4,28.2,29.71,WNW,292,0.0,0.0,81,0.00,,,0.00,WUHU21623XXSP,2013-03-27 06:37:00,
2013-03-27 02:39:00,33.4,28.2,29.72,WNW,292,0.0,0.0,81,0.00,,,0.00,WUHU21623XXSP,2013-03-27 06:39:00,
2013-03-27 02:40:00,33.4,28.2,29.71,WNW,292,0.0,0.0,81,0.00,,,0.00,WUHU21623XXSP,2013-03-27 06:40:00,
2013-03-27 02:42:00,33.4,28.2,29.71,WNW,292,0.0,0.0,81,0.00,,,0.00,WUHU21623XXSP,2013-03-27 06:42:00,
2013-03-27 02:44:00,33.4,28.2,29.72,WNW,292,0.0,0.0,81,0.00,,,0.00,WUHU21623XXSP,2013-03-27 06:44:00,
2013-03-27 02:45:00,33.4,28.2,29.72,WNW,292,0.0,0.0,81,0.00,,,0.00,WUHU21623XXSP,2013-03-27 06:45:00,
2013-03-27 02:47:00,33.4,28.2,29.72,WNW,292,0.0,0.0,81,0.00,,,0.00,WUHU21623XXSP,2013-03-27 06:47:00,
2013-03-27 02:49:00,33.3,28.0,29.71,WNW,292,0.0,0.0,81,0.00,,,0.00,WUHU21623XXSP,2013-03-27 06:49:00,
2013-03-27 02:50:00,33.3,28.0,29.71,WNW,292,0.0,0.0,81,0.00,,,0.00,WUHU21623XXSP,2013-03-27 06:50:00,
2013-03-27 02:52:00,33.4,28.2,29.71,WNW,292,0.0,0.0,81,0.00,,,0.00,WUHU21623XXSP,2013-03-27 06:52:00,
2013-03-27 02:54:00,33.4,28.2,29.72,WNW,292,0.0,0.0,81,0.00,,,0.00,WUHU21623XXSP,2013-03-27 06:54:00,
2013-03-27 02:55:00,33.4,28.2,29.71,WNW,292,0.0,0.0,81,0.00,,,0.00,WUHU21623XXSP,2013-03-27 06:55:00,
2013-03-27 02:57:00,33.3,28.0,29.71,WNW,292,0.0,0.0,81,0.00,,,0.00,WUHU21623XXSP,2013-03-27 06:57:00,
2013-03-27 03:00:00,33.3,28.0,29.71,WNW,292,0.0,0.0,81,0.00,,,0.00,WUHU21623XXSP,2013-03-27 07:00:00,
2013-03-27 03:02:00,33.3,28.0,29.71,WNW,292,0.0,0.0,81,0.00,,,0.00,WUHU21623XXSP,2013-03-27 07:02:00,
2013-03-27 03:05:00,33.3,28.0,29.71,NW,315,0.0,0.0,81,0.00,,,0.00,WUHU21623XXSP,2013-03-27 07:05:00,
2013-03-27 03:06:00,33.3,28.0,29.71,WNW,292,0.0,0.0,81,0.00,,,0.00,WUHU21623XXSP,2013-03-27 07:06:00,
2013-03-27 03:07:00,33.3,27.7,29.71,WNW,292,0.0,0.0,80,0.00,,,0.00,WUHU21623XXSP,2013-03-27 07:07:00,
2013-03-27 03:10:00,33.3,27.7,29.71,WNW,292,0.0,0.0,80,0.00,,,0.00,WUHU21623XXSP,2013-03-27 07:10:00,
2013-03-27 03:11:00,33.3,27.7,29.71,WNW,292,0.0,0.0,80,0.00,,,0.00,WUHU21623XXSP,2013-03-27 07:11:00,
2013-03-27 03:13:00,33.3,27.7,29.71,WNW,292,0.0,0.0,80,0.00,,,0.00,WUHU21623XXSP,2013-03-27 07:13:00,
2013-03-27 03:15:00,33.3,27.7,29.71,WNW,292,0.0,0.0,80,0.00,,,0.00,WUHU21623XXSP,2013-03-27 07:15:00,
2013-03-27 03:16:00,33.3,27.7,29.71,WNW,292,0.0,0.0,80,0.00,,,0.00,WUHU21623XXSP,2013-03-27 07:16:00,
2013-03-27 03:18:00,33.3,27.7,29.71,WNW,292,0.0,0.0,80,0.00,,,0.00,WUHU21623XXSP,2013-03-27 07:18:00,
2013-03-27 03:20:00,33.3,27.7,29.71,WNW,292,0.0,0.0,80,0.00,,,0.00,WUHU21623XXSP,2013-03-27 07:20:00,
2013-03-27 03:21:00,33.3,27.7,29.71,WNW,292,0.0,0.0,80,0.00,,,0.00,WUHU21623XXSP,2013-03-27 07:21:00,
2013-03-27 03:23:00,33.1,27.6,29.72,WNW,292,0.0,0.0,80,0.00,,,0.00,WUHU21623XXSP,2013-03-27 07:23:00,
2013-03-27 03:26:00,33.1,27.6,29.71,WNW,292,0.0,0.0,80,0.00,,,0.00,WUHU21623XXSP,2013-03-27 07:26:00,
2013-03-27 03:27:00,33.1,27.6,29.71,WNW,292,0.0,0.0,80,0.00,,,0.00,WUHU21623XXSP,2013-03-27 07:27:00,
2013-03-27 03:29:00,33.1,27.6,29.71,WNW,292,0.0,0.0,80,0.00,,,0.00,WUHU21623XXSP,2013-03-27 07:29:00,
2013-03-27 03:31:00,32.9,27.4,29.71,WNW,292,0.0,0.0,80,0.00,,,0.00,WUHU21623XXSP,2013-03-27 07:31:00,
2013-03-27 03:32:00,32.9,27.4,29.71,WNW,292,0.0,0.0,80,0.00,,,0.00,WUHU21623XXSP,2013-03-27 07:32:00,
2013-03-27 03:34:00,32.9,27.4,29.71,WNW,292,0.0,0.0,80,0.00,,,0.00,WUHU21623XXSP,2013-03-27 07:34:00,
2013-03-27 03:37:00,32.7,27.2,29.71,WNW,292,0.0,0.0,80,0.00,,,0.00,WUHU21623XXSP,2013-03-27 07:37:00,
2013-03-27 03:39:00,32.7,27.2,29.71,WNW,292,0.0,0.0,81,0.00,,,0.00,WUHU21623XXSP,2013-03-27 07:39:00,
2013-03-27 03:42:00,32.7,27.2,29.71,NW,315,0.0,0.0,80,0.00,,,0.00,WUHU21623XXSP,2013-03-27 07:42:00,
2013-03-27 03:44:00,32.5,27.1,29.71,NW,315,0.0,0.0,80,0.00,,,0.00,WUHU21623XXSP,2013-03-27 07:44:00,
2013-03-27 03:47:00,32.5,27.1,29.71,NW,315,0.0,0.0,80,0.00,,,0.00,WUHU21623XXSP,2013-03-27 07:47:00,
2013-03-27 03:48:00,32.5,27.1,29.71,NW,315,0.0,0.0,80,0.00,,,0.00,WUHU21623XXSP,2013-03-27 07:48:00,
2013-03-27 03:49:00,32.5,27.1,29.71,NW,315,0.0,0.0,80,0.00,,,0.00,WUHU21623XXSP,2013-03-27 07:49:00,
2013-03-27 03:52:00,32.4,26.9,29.71,WNW,292,0.0,0.0,80,0.00,,,0.00,WUHU21623XXSP,2013-03-27 07:52:00,
2013-03-27 03:53:00,32.4,26.9,29.71,WNW,292,0.0,0.0,80,0.00,,,0.00,WUHU21623XXSP,2013-03-27 07:53:00,
2013-03-27 03:54:00,32.4,26.9,29.71,WNW,292,0.0,0.0,80,0.00,,,0.00,WUHU21623XXSP,2013-03-27 07:54:00,
2013-03-27 03:57:00,32.2,26.8,29.71,WNW,292,0.0,0.0,80,0.00,,,0.00,WUHU21623XXSP,2013-03-27 07:57:00,
2013-03-27 03:58:00,32.2,27.1,29.71,NW,315,0.0,0.0,81,0.00,,,0.00,WUHU21623XXSP,2013-03-27 07:58:00,
2013-03-27 03:59:00,32.2,27.1,29.71,NW,315,0.0,0.0,81,0.00,,,0.00,WUHU21623XXSP,2013-03-27 07:59:00,
2013-03-27 04:02:00,32.2,27.1,29.71,NW,315,0.0,0.0,80,0.00,,,0.00,WUHU21623XXSP,2013-03-27 08:02:00,
2013-03-27 04:03:00,32.2,27.1,29.71,NW,315,0.0,0.0,80,0.00,,,0.00,WUHU21623XXSP,2013-03-27 08:03:00,
2013-03-27 04:04:00,32.0,26.8,29.71,NW,315,0.0,0.0,80,0.00,,,0.00,WUHU21623XXSP,2013-03-27 08:04:00,
2013-03-27 04:05:00,32.0,26.8,29.71,NW,315,0.0,0.0,80,0.00,,,0.00,WUHU21623XXSP,2013-03-27 08:05:00,
2013-03-27 04:07:00,31.8,26.4,29.71,NW,315,0.0,0.0,80,0.00,,,0.00,WUHU21623XXSP,2013-03-27 08:07:00,
2013-03-27 04:08:00,31.8,26.4,29.71,NW,315,0.0,0.0,80,0.00,,,0.00,WUHU21623XXSP,2013-03-27 08:08:00,
2013-03-27 04:09:00,31.8,26.4,29.71,NW,315,0.0,0.0,80,0.00,,,0.00,WUHU21623XXSP,2013-03-27 08:09:00,
2013-03-27 04:10:00,31.6,26.2,29.71,NW,315,0.0,0.0,80,0.00,,,0.00,WUHU21623XXSP,2013-03-27 08:10:00,
2013-03-27 04:12:00,31.6,26.2,29.71,WNW,292,0.0,0.0,80,0.00,,,0.00,WUHU21623XXSP,2013-03-27 08:12:00,
2013-03-27 04:13:00,31.6,26.2,29.71,WNW,292,0.0,0.0,80,0.00,,,0.00,WUHU21623XXSP,2013-03-27 08:13:00,
2013-03-27 04:14:00,31.5,26.1,29.71,WNW,292,0.0,0.0,80,0.00,,,0.00,WUHU21623XXSP,2013-03-27 08:14:00,
2013-03-27 04:15:00,31.5,26.1,29.71,WNW,292,0.0,0.0,80,0.00,,,0.00,WUHU21623XXSP,2013-03-27 08:15:00,
2013-03-27 04:18:00,31.3,25.9,29.71,NW,315,0.0,0.0,80,0.00,,,0.00,WUHU21623XXSP,2013-03-27 08:18:00,
2013-03-27 04:19:00,31.3,26.2,29.71,WNW,292,0.0,0.0,81,0.00,,,0.00,WUHU21623XXSP,2013-03-27 08:19:00,
2013-03-27 04:20:00,31.3,26.2,29.71,WNW,292,0.0,0.0,81,0.00,,,0.00,WUHU21623XXSP,2013-03-27 08:20:00,
2013-03-27 04:23:00,31.1,26.0,29.71,WNW,292,0.0,0.0,81,0.00,,,0.00,WUHU21623XXSP,2013-03-27 08:23:00,
2013-03-27 04:24:00,31.1,26.0,29.71,WNW,292,0.0,0.0,81,0.00,,,0.00,WUHU21623XXSP,2013-03-27 08:24:00,
2013-03-27 04:25:00,31.1,26.0,29.72,WNW,292,0.0,0.0,81,0.00,,,0.00,WUHU21623XXSP,2013-03-27 08:25:00,
2013-03-27 04:28:00,30.9,25.8,29.71,WNW,292,0.0,0.0,81,0.00,,,0.00,WUHU21623XXSP,2013-03-27 08:28:00,
2013-03-27 04:29:00,30.9,25.8,29.71,WNW,292,0.0,0.0,81,0.00,,,0.00,WUHU21623XXSP,2013-03-27 08:29:00,
2013-03-27 04:30:00,30.9,25.8,29.71,WNW,292,0.0,0.0,81,0.00,,,0.00,WUHU21623XXSP,2013-03-27 08:30:00,
2013-03-27 04:33:00,30.9,25.8,29.71,WNW,292,0.0,0.0,81,0.00,,,0.00,WUHU21623XXSP,2013-03-27 08:33:00,
2013-03-27 04:34:00,30.9,25.8,29.71,WNW,292,0.0,0.0,81,0.00,,,0.00,WUHU21623XXSP,2013-03-27 08:34:00,
2013-03-27 04:35:00,30.9,25.8,29.71,WNW,292,0.0,0.0,81,0.00,,,0.00,WUHU21623XXSP,2013-03-27 08:35:00,
2013-03-27 04:38:00,30.7,25.6,29.71,WNW,292,0.0,0.0,81,0.00,,,0.00,WUHU21623XXSP,2013-03-27 08:38:00,
2013-03-27 04:39:00,30.7,25.6,29.71,WNW,292,0.0,0.0,81,0.00,,,0.00,WUHU21623XXSP,2013-03-27 08:39:00,
2013-03-27 04:40:00,30.7,25.6,29.71,WNW,292,0.0,0.0,81,0.00,,,0.00,WUHU21623XXSP,2013-03-27 08:40:00,
2013-03-27 04:41:00,30.7,25.6,29.71,WNW,292,0.0,0.0,81,0.00,,,0.00,WUHU21623XXSP,2013-03-27 08:41:00,
2013-03-27 04:43:00,30.6,25.4,29.71,WNW,292,0.0,0.0,81,0.00,,,0.00,WUHU21623XXSP,2013-03-27 08:43:00,
2013-03-27 04:44:00,30.7,25.6,29.71,WNW,292,0.0,0.0,81,0.00,,,0.00,WUHU21623XXSP,2013-03-27 08:44:00,
2013-03-27 04:45:00,30.7,25.6,29.71,WNW,292,0.0,0.0,81,0.00,,,0.00,WUHU21623XXSP,2013-03-27 08:45:00,
2013-03-27 04:46:00,30.7,25.6,29.71,WNW,292,0.0,0.0,81,0.00,,,0.00,WUHU21623XXSP,2013-03-27 08:46:00,
2013-03-27 04:49:00,30.6,25.4,29.71,WNW,292,0.0,0.0,81,0.00,,,0.00,WUHU21623XXSP,2013-03-27 08:49:00,
2013-03-27 04:50:00,30.6,25.4,29.71,WNW,292,0.0,0.0,81,0.00,,,0.00,WUHU21623XXSP,2013-03-27 08:50:00,
2013-03-27 04:52:00,30.6,25.4,29.72,WNW,292,0.0,0.0,81,0.00,,,0.00,WUHU21623XXSP,2013-03-27 08:52:00,
2013-03-27 04:54:00,30.6,25.7,29.71,NW,315,0.0,0.0,82,0.00,,,0.00,WUHU21623XXSP,2013-03-27 08:54:00,
2013-03-27 04:55:00,30.6,25.7,29.71,NW,315,0.0,0.0,82,0.00,,,0.00,WUHU21623XXSP,2013-03-27 08:55:00,
2013-03-27 04:56:00,30.6,25.7,29.71,NW,315,0.0,0.0,82,0.00,,,0.00,WUHU21623XXSP,2013-03-27 08:56:00,
2013-03-27 04:57:00,30.4,25.6,29.72,WNW,292,0.0,0.0,82,0.00,,,0.00,WUHU21623XXSP,2013-03-27 08:57:00,
2013-03-27 04:59:00,30.6,25.7,29.72,WNW,292,0.0,0.0,82,0.00,,,0.00,WUHU21623XXSP,2013-03-27 08:59:00,
2013-03-27 05:00:00,30.6,25.7,29.72,WNW,292,0.0,0.0,82,0.00,,,0.00,WUHU21623XXSP,2013-03-27 09:00:00,
2013-03-27 05:01:00,30.6,25.7,29.72,WNW,292,0.0,0.0,82,0.00,,,0.00,WUHU21623XXSP,2013-03-27 09:01:00,
2013-03-27 05:03:00,30.6,25.7,29.71,NW,315,0.0,0.0,82,0.00,,,0.00,WUHU21623XXSP,2013-03-27 09:03:00,
2013-03-27 05:04:00,30.6,25.7,29.72,NW,315,0.0,0.0,82,0.00,,,0.00,WUHU21623XXSP,2013-03-27 09:04:00,
2013-03-27 05:05:00,30.6,25.7,29.72,NW,315,0.0,0.0,82,0.00,,,0.00,WUHU21623XXSP,2013-03-27 09:05:00,
2013-03-27 05:07:00,30.6,25.7,29.72,WNW,292,0.0,0.0,82,0.00,,,0.00,WUHU21623XXSP,2013-03-27 09:07:00,
2013-03-27 05:08:00,30.6,25.7,29.71,NW,315,0.0,0.0,82,0.00,,,0.00,WUHU21623XXSP,2013-03-27 09:08:00,
2013-03-27 05:09:00,30.6,25.7,29.71,NW,315,0.0,0.0,82,0.00,,,0.00,WUHU21623XXSP,2013-03-27 09:09:00,
2013-03-27 05:10:00,30.6,25.7,29.71,WNW,292,0.0,0.0,82,0.00,,,0.00,WUHU21623XXSP,2013-03-27 09:10:00,
2013-03-27 05:12:00,30.6,25.7,29.71,NW,315,0.0,0.0,82,0.00,,,0.00,WUHU21623XXSP,2013-03-27 09:12:00,
2013-03-27 05:13:00,30.6,25.7,29.71,NW,315,0.0,0.0,82,0.00,,,0.00,WUHU21623XXSP,2013-03-27 09:13:00,
2013-03-27 05:15:00,30.6,25.7,29.72,NW,315,0.0,0.0,82,0.00,,,0.00,WUHU21623XXSP,2013-03-27 09:15:00,
2013-03-27 05:16:00,30.6,25.7,29.72,NW,315,0.0,0.0,82,0.00,,,0.00,WUHU21623XXSP,2013-03-27 09:16:00,
2013-03-27 05:17:00,30.6,25.7,29.72,WNW,292,0.0,0.0,82,0.00,,,0.00,WUHU21623XXSP,2013-03-27 09:17:00,
2013-03-27 05:18:00,30.6,25.7,29.72,WNW,292,0.0,0.0,82,0.00,,,0.00,WUHU21623XXSP,2013-03-27 09:18:00,
2013-03-27 05:20:00,30.6,25.7,29.72,WNW,292,0.0,0.0,82,0.00,,,0.00,WUHU21623XXSP,2013-03-27 09:20:00,
2013-03-27 05:21:00,30.6,25.7,29.72,WNW,292,0.0,0.0,82,0.00,,,0.00,WUHU21623XXSP,2013-03-27 09:21:00,
2013-03-27 05:22:00,30.6,25.7,29.72,WNW,292,0.0,0.0,82,0.00,,,0.00,WUHU21623XXSP,2013-03-27 09:22:00,
2013-03-27 05:23:00,30.6,25.7,29.72,WNW,292,0.0,0.0,82,0.00,,,0.00,WUHU21623XXSP,2013-03-27 09:23:00,
2013-03-27 05:25:00,30.6,25.7,29.72,WNW,292,0.0,0.0,82,0.00,,,0.00,WUHU21623XXSP,2013-03-27 09:25:00,
2013-03-27 05:26:00,30.6,25.7,29.72,WNW,292,0.0,0.0,82,0.00,,,0.00,WUHU21623XXSP,2013-03-27 09:26:00,
2013-03-27 05:27:00,30.6,25.7,29.72,WNW,292,0.0,0.0,81,0.00,,,0.00,WUHU21623XXSP,2013-03-27 09:27:00,
2013-03-27 05:28:00,30.6,25.7,29.72,WNW,292,0.0,0.0,81,0.00,,,0.00,WUHU21623XXSP,2013-03-27 09:28:00,
2013-03-27 05:30:00,30.4,25.3,29.72,WNW,292,0.0,0.0,81,0.00,,,0.00,WUHU21623XXSP,2013-03-27 09:30:00,
2013-03-27 05:31:00,30.4,25.3,29.72,WNW,292,0.0,0.0,81,0.00,,,0.00,WUHU21623XXSP,2013-03-27 09:31:00,
2013-03-27 05:32:00,30.4,25.3,29.72,WNW,292,0.0,0.0,81,0.00,,,0.00,WUHU21623XXSP,2013-03-27 09:32:00,
2013-03-27 05:34:00,30.4,25.6,29.72,WNW,292,0.0,0.0,82,0.00,,,0.00,WUHU21623XXSP,2013-03-27 09:34:00,
2013-03-27 05:36:00,30.4,25.6,29.72,WNW,292,0.0,0.0,82,0.00,,,0.00,WUHU21623XXSP,2013-03-27 09:36:00,
2013-03-27 05:37:00,30.4,25.6,29.72,WNW,292,0.0,0.0,82,0.00,,,0.00,WUHU21623XXSP,2013-03-27 09:37:00,
2013-03-27 05:38:00,30.4,25.6,29.72,WNW,292,0.0,0.0,82,0.00,,,0.00,WUHU21623XXSP,2013-03-27 09:38:00,
2013-03-27 05:39:00,30.4,25.6,29.72,WNW,292,0.0,0.0,82,0.00,,,0.00,WUHU21623XXSP,2013-03-27 09:39:00,
2013-03-27 05:41:00,30.4,25.6,29.72,WNW,292,0.0,0.0,81,0.00,,,0.00,WUHU21623XXSP,2013-03-27 09:41:00,
2013-03-27 05:42:00,30.4,25.3,29.72,WNW,292,0.0,0.0,81,0.00,,,0.00,WUHU21623XXSP,2013-03-27 09:42:00,
2013-03-27 05:43:00,30.4,25.3,29.72,WNW,292,0.0,0.0,81,0.00,,,0.00,WUHU21623XXSP,2013-03-27 09:43:00,
2013-03-27 05:44:00,30.4,25.3,29.72,WNW,292,0.0,0.0,81,0.00,,,0.00,WUHU21623XXSP,2013-03-27 09:44:00,
2013-03-27 05:46:00,30.4,25.3,29.72,WNW,292,0.0,0.0,81,0.00,,,0.00,WUHU21623XXSP,2013-03-27 09:46:00,
2013-03-27 05:47:00,30.0,24.9,29.72,West,270,0.0,0.0,81,0.00,,,0.00,WUHU21623XXSP,2013-03-27 09:47:00,
2013-03-27 05:48:00,30.0,24.9,29.72,West,270,0.0,0.0,81,0.00,,,0.00,WUHU21623XXSP,2013-03-27 09:48:00,
2013-03-27 05:49:00,30.0,25.2,29.73,WNW,292,0.0,0.0,82,0.00,,,0.00,WUHU21623XXSP,2013-03-27 09:49:00,
2013-03-27 05:52:00,30.0,25.2,29.73,West,270,0.0,0.0,82,0.00,,,0.00,WUHU21623XXSP,2013-03-27 09:52:00,
2013-03-27 05:53:00,30.0,25.2,29.72,WNW,292,0.0,0.0,82,0.00,,,0.00,WUHU21623XXSP,2013-03-27 09:53:00,
2013-03-27 05:54:00,30.0,25.2,29.72,WNW,292,0.0,0.0,82,0.00,,,0.00,WUHU21623XXSP,2013-03-27 09:54:00,
2013-03-27 05:57:00,29.8,25.0,29.72,West,270,0.0,0.0,82,0.00,,,0.00,WUHU21623XXSP,2013-03-27 09:57:00,
2013-03-27 05:58:00,29.8,25.0,29.72,West,270,0.0,0.0,82,0.00,,,0.00,WUHU21623XXSP,2013-03-27 09:58:00,
2013-03-27 06:00:00,29.7,24.8,29.72,West,270,0.0,0.0,82,0.00,,,0.00,WUHU21623XXSP,2013-03-27 10:00:00,
2013-03-27 06:02:00,29.5,24.7,29.73,WNW,292,0.0,0.0,82,0.00,,,0.00,WUHU21623XXSP,2013-03-27 10:02:00,
2013-03-27 06:03:00,29.5,24.7,29.73,WNW,292,0.0,0.0,82,0.00,,,0.00,WUHU21623XXSP,2013-03-27 10:03:00,
2013-03-27 06:05:00,29.5,24.7,29.73,West,270,0.0,0.0,82,0.00,,,0.00,WUHU21623XXSP,2013-03-27 10:05:00,
2013-03-27 06:07:00,29.3,24.5,29.73,West,270,0.0,0.0,82,0.00,,,0.00,WUHU21623XXSP,2013-03-27 10:07:00,
2013-03-27 06:08:00,29.1,24.3,29.73,WNW,292,0.0,0.0,82,0.00,,,0.00,WUHU21623XXSP,2013-03-27 10:08:00,
2013-03-27 06:10:00,29.1,24.3,29.72,West,270,0.0,0.0,82,0.00,,,0.00,WUHU21623XXSP,2013-03-27 10:10:00,
2013-03-27 06:12:00,29.1,24.3,29.72,WNW,292,0.0,0.0,82,0.00,,,0.00,WUHU21623XXSP,2013-03-27 10:12:00,
2013-03-27 06:13:00,29.1,24.3,29.72,WNW,292,0.0,0.0,82,0.00,,,0.00,WUHU21623XXSP,2013-03-27 10:13:00,
2013-03-27 06:15:00,29.1,24.3,29.73,WNW,292,0.0,0.0,82,0.00,,,0.00,WUHU21623XXSP,2013-03-27 10:15:00,
2013-03-27 06:17:00,29.1,24.3,29.73,West,270,0.0,0.0,82,0.00,,,0.00,WUHU21623XXSP,2013-03-27 10:17:00,
2013-03-27 06:18:00,28.9,24.3,29.73,West,270,0.0,0.0,83,0.00,,,0.00,WUHU21623XXSP,2013-03-27 10:18:00,
2013-03-27 06:20:00,28.9,24.3,29.73,West,270,0.0,0.0,83,0.00,,,0.00,WUHU21623XXSP,2013-03-27 10:20:00,
2013-03-27 06:22:00,28.9,24.4,29.73,WNW,292,0.0,0.0,83,0.00,,,0.00,WUHU21623XXSP,2013-03-27 10:22:00,
2013-03-27 06:24:00,28.9,24.4,29.73,WNW,292,0.0,0.0,83,0.00,,,0.00,WUHU21623XXSP,2013-03-27 10:24:00,
2013-03-27 06:25:00,28.9,24.4,29.73,WNW,292,0.0,0.0,83,0.00,,,0.00,WUHU21623XXSP,2013-03-27 10:25:00,
2013-03-27 06:28:00,28.8,24.4,29.73,WNW,292,0.0,0.0,83,0.00,,,0.00,WUHU21623XXSP,2013-03-27 10:28:00,
2013-03-27 06:29:00,28.8,24.4,29.73,WNW,292,0.0,0.0,83,0.00,,,0.00,WUHU21623XXSP,2013-03-27 10:29:00,
2013-03-27 06:30:00,28.8,24.2,29.73,WNW,292,0.0,0.0,83,0.00,,,0.00,WUHU21623XXSP,2013-03-27 10:30:00,
2013-03-27 06:33:00,28.8,24.2,29.73,WNW,292,0.0,0.0,83,0.00,,,0.00,WUHU21623XXSP,2013-03-27 10:33:00,
2013-03-27 06:34:00,28.8,24.2,29.73,West,270,0.0,0.0,83,0.00,,,0.00,WUHU21623XXSP,2013-03-27 10:34:00,
2013-03-27 06:35:00,28.8,24.2,29.73,West,270,0.0,0.0,83,0.00,,,0.00,WUHU21623XXSP,2013-03-27 10:35:00,
2013-03-27 06:38:00,28.8,24.2,29.74,West,270,0.0,0.0,83,0.00,,,0.00,WUHU21623XXSP,2013-03-27 10:38:00,
2013-03-27 06:39:00,28.8,24.2,29.74,West,270,0.0,0.0,83,0.00,,,0.00,WUHU21623XXSP,2013-03-27 10:39:00,
2013-03-27 06:40:00,28.6,24.0,29.74,West,270,0.0,0.0,83,0.00,,,0.00,WUHU21623XXSP,2013-03-27 10:40:00,
2013-03-27 06:43:00,28.6,24.0,29.73,West,270,0.0,0.0,83,0.00,,,0.00,WUHU21623XXSP,2013-03-27 10:43:00,
2013-03-27 06:44:00,28.6,24.0,29.73,WNW,292,0.0,0.0,83,0.00,,,0.00,WUHU21623XXSP,2013-03-27 10:44:00,
2013-03-27 06:45:00,28.6,24.0,29.73,WNW,292,0.0,0.0,83,0.00,,,0.00,WUHU21623XXSP,2013-03-27 10:45:00,
2013-03-27 06:48:00,28.6,24.0,29.73,West,270,0.0,0.0,83,0.00,,,0.00,WUHU21623XXSP,2013-03-27 10:48:00,
2013-03-27 06:49:00,28.6,24.0,29.73,West,270,0.0,0.0,83,0.00,,,0.00,WUHU21623XXSP,2013-03-27 10:49:00,
2013-03-27 06:50:00,28.6,24.0,29.73,West,270,0.0,0.0,83,0.00,,,0.00,WUHU21623XXSP,2013-03-27 10:50:00,
2013-03-27 06:53:00,28.2,23.7,29.73,West,270,0.0,0.0,83,0.00,,,0.00,WUHU21623XXSP,2013-03-27 10:53:00,
2013-03-27 06:54:00,28.2,23.7,29.73,West,270,0.0,0.0,83,0.00,,,0.00,WUHU21623XXSP,2013-03-27 10:54:00,
2013-03-27 06:55:00,28.2,23.7,29.73,West,270,0.0,0.0,83,0.00,,,0.00,WUHU21623XXSP,2013-03-27 10:55:00,
2013-03-27 06:56:00,28.2,23.7,29.73,West,270,0.0,0.0,83,0.00,,,0.00,WUHU21623XXSP,2013-03-27 10:56:00,
2013-03-27 06:58:00,28.2,23.7,29.73,West,270,0.0,0.0,83,0.00,,,0.00,WUHU21623XXSP,2013-03-27 10:58:00,
2013-03-27 06:59:00,28.2,23.7,29.73,West,270,0.0,0.0,83,0.00,,,0.00,WUHU21623XXSP,2013-03-27 10:59:00,
2013-03-27 07:00:00,28.2,23.7,29.73,West,270,0.0,0.0,83,0.00,,,0.00,WUHU21623XXSP,2013-03-27 11:00:00,
2013-03-27 07:02:00,28.2,23.7,29.74,West,270,0.0,0.0,83,0.00,,,0.00,WUHU21623XXSP,2013-03-27 11:02:00,
2013-03-27 07:03:00,28.0,23.7,29.73,West,270,0.0,0.0,83,0.00,,,0.00,WUHU21623XXSP,2013-03-27 11:03:00,
2013-03-27 07:05:00,28.0,23.7,29.73,West,270,0.0,0.0,83,0.00,,,0.00,WUHU21623XXSP,2013-03-27 11:05:00,
2013-03-27 07:07:00,28.0,23.5,29.73,West,270,0.0,0.0,83,0.00,,,0.00,WUHU21623XXSP,2013-03-27 11:07:00,
2013-03-27 07:08:00,27.9,23.3,29.73,West,270,0.0,0.0,83,0.00,,,0.00,WUHU21623XXSP,2013-03-27 11:08:00,
2013-03-27 07:10:00,27.7,23.1,29.73,West,270,0.0,0.0,83,0.00,,,0.00,WUHU21623XXSP,2013-03-27 11:10:00,
2013-03-27 07:12:00,27.7,23.1,29.73,West,270,0.0,0.0,83,0.00,,,0.00,WUHU21623XXSP,2013-03-27 11:12:00,
2013-03-27 07:14:00,27.7,23.1,29.73,West,270,0.0,0.0,83,0.00,,,0.00,WUHU21623XXSP,2013-03-27 11:14:00,
2013-03-27 07:15:00,27.7,23.1,29.73,West,270,0.0,0.0,83,0.00,,,0.00,WUHU21623XXSP,2013-03-27 11:15:00,
2013-03-27 07:16:00,27.7,23.1,29.73,West,270,0.0,0.0,83,0.00,,,0.00,WUHU21623XXSP,2013-03-27 11:16:00,
2013-03-27 07:17:00,27.7,23.1,29.73,West,270,0.0,0.0,83,0.00,,,0.00,WUHU21623XXSP,2013-03-27 11:17:00,
2013-03-27 07:19:00,27.7,23.1,29.73,West,270,0.0,0.0,83,0.00,,,0.00,WUHU21623XXSP,2013-03-27 11:19:00,
2013-03-27 07:20:00,27.7,23.1,29.73,West,270,0.0,0.0,83,0.00,,,0.00,WUHU21623XXSP,2013-03-27 11:20:00,
2013-03-27 07:22:00,27.5,23.1,29.73,West,270,0.0,0.0,83,0.00,,,0.00,WUHU21623XXSP,2013-03-27 11:22:00,
2013-03-27 07:24:00,27.5,23.0,29.73,West,270,0.0,0.0,83,0.00,,,0.00,WUHU21623XXSP,2013-03-27 11:24:00,
2013-03-27 07:25:00,27.3,22.8,29.73,West,270,0.0,0.0,83,0.00,,,0.00,WUHU21623XXSP,2013-03-27 11:25:00,
2013-03-27 07:27:00,27.3,22.8,29.73,West,270,0.0,0.0,83,0.00,,,0.00,WUHU21623XXSP,2013-03-27 11:27:00,
2013-03-27 07:28:00,27.3,22.8,29.73,West,270,0.0,0.0,83,0.00,,,0.00,WUHU21623XXSP,2013-03-27 11:28:00,
2013-03-27 07:29:00,27.1,22.8,29.73,West,270,0.0,0.0,84,0.00,,,0.00,WUHU21623XXSP,2013-03-27 11:29:00,
2013-03-27 07:30:00,27.1,22.8,29.73,West,270,0.0,0.0,84,0.00,,,0.00,WUHU21623XXSP,2013-03-27 11:30:00,
2013-03-27 07:33:00,27.1,22.9,29.73,West,270,0.0,0.0,84,0.00,,,0.00,WUHU21623XXSP,2013-03-27 11:33:00,
2013-03-27 07:34:00,27.1,22.9,29.74,West,270,0.0,0.0,84,0.00,,,0.00,WUHU21623XXSP,2013-03-27 11:34:00,
2013-03-27 07:35:00,27.1,22.9,29.74,West,270,0.0,0.0,84,0.00,,,0.00,WUHU21623XXSP,2013-03-27 11:35:00,
2013-03-27 07:38:00,27.3,22.9,29.74,West,270,0.0,0.0,84,0.00,,,0.00,WUHU21623XXSP,2013-03-27 11:38:00,
2013-03-27 07:39:00,27.3,22.9,29.74,West,270,0.0,0.0,84,0.00,,,0.00,WUHU21623XXSP,2013-03-27 11:39:00,
2013-03-27 07:41:00,27.3,23.1,29.74,West,270,0.0,0.0,84,0.00,,,0.00,WUHU21623XXSP,2013-03-27 11:41:00,
2013-03-27 07:43:00,27.3,23.1,29.74,West,270,0.0,0.0,84,0.00,,,0.00,WUHU21623XXSP,2013-03-27 11:43:00,
2013-03-27 07:44:00,27.3,23.1,29.74,West,270,0.0,0.0,84,0.00,,,0.00,WUHU21623XXSP,2013-03-27 11:44:00,
2013-03-27 07:46:00,27.3,23.1,29.74,West,270,0.0,0.0,84,0.00,,,0.00,WUHU21623XXSP,2013-03-27 11:46:00,
2013-03-27 07:48:00,27.5,23.3,29.74,West,270,0.0,0.0,84,0.00,,,0.00,WUHU21623XXSP,2013-03-27 11:48:00,
2013-03-27 07:50:00,27.5,23.3,29.74,West,270,0.0,0.0,84,0.00,,,0.00,WUHU21623XXSP,2013-03-27 11:50:00,
2013-03-27 07:51:00,27.7,23.4,29.75,West,270,0.0,0.0,84,0.00,,,0.00,WUHU21623XXSP,2013-03-27 11:51:00,
2013-03-27 07:53:00,27.7,23.4,29.75,West,270,0.0,0.0,84,0.00,,,0.00,WUHU21623XXSP,2013-03-27 11:53:00,
2013-03-27 07:55:00,27.7,23.4,29.75,West,270,0.0,0.0,84,0.00,,,0.00,WUHU21623XXSP,2013-03-27 11:55:00,
2013-03-27 07:56:00,27.7,23.4,29.75,West,270,0.0,0.0,84,0.00,,,0.00,WUHU21623XXSP,2013-03-27 11:56:00,
2013-03-27 07:58:00,28.0,23.4,29.75,West,270,0.0,0.0,85,0.00,,,0.00,WUHU21623XXSP,2013-03-27 11:58:00,
2013-03-27 07:59:00,28.0,23.4,29.75,West,270,0.0,0.0,85,0.00,,,0.00,WUHU21623XXSP,2013-03-27 11:59:00,
2013-03-27 08:00:00,28.0,24.1,29.74,West,270,0.0,0.0,85,0.00,,,0.00,WUHU21623XXSP,2013-03-27 12:00:00,
2013-03-27 08:02:00,28.2,24.3,29.75,WSW,247,0.0,0.0,85,0.00,,,0.00,WUHU21623XXSP,2013-03-27 12:02:00,
2013-03-27 08:04:00,28.2,24.3,29.75,WSW,247,0.0,0.0,85,0.00,,,0.00,WUHU21623XXSP,2013-03-27 12:04:00,
2013-03-27 08:05:00,28.6,24.3,29.75,WSW,247,0.0,0.0,85,0.00,,,0.00,WUHU21623XXSP,2013-03-27 12:05:00,
2013-03-27 08:07:00,28.6,24.3,29.75,WSW,247,0.0,0.0,85,0.00,,,0.00,WUHU21623XXSP,2013-03-27 12:07:00,
2013-03-27 08:09:00,28.6,24.6,29.75,WSW,247,0.0,0.0,85,0.00,,,0.00,WUHU21623XXSP,2013-03-27 12:09:00,
2013-03-27 08:10:00,28.8,24.8,29.75,West,270,0.0,0.0,85,0.00,,,0.00,WUHU21623XXSP,2013-03-27 12:10:00,
2013-03-27 08:12:00,29.1,25.2,29.75,West,270,0.0,0.0,85,0.00,,,0.00,WUHU21623XXSP,2013-03-27 12:12:00,
2013-03-27 08:14:00,29.1,25.2,29.75,West,270,0.0,0.0,85,0.00,,,0.00,WUHU21623XXSP,2013-03-27 12:14:00,
2013-03-27 08:15:00,29.1,25.2,29.75,West,270,0.0,0.0,85,0.00,,,0.00,WUHU21623XXSP,2013-03-27 12:15:00,
2013-03-27 08:17:00,29.3,25.3,29.75,West,270,0.0,0.0,85,0.00,,,0.00,WUHU21623XXSP,2013-03-27 12:17:00,
2013-03-27 08:19:00,29.7,25.7,29.75,WNW,292,0.0,0.0,85,0.00,,,0.00,WUHU21623XXSP,2013-03-27 12:19:00,
2013-03-27 08:20:00,29.8,25.7,29.75,WNW,292,0.0,0.0,85,0.00,,,0.00,WUHU21623XXSP,2013-03-27 12:20:00,
2013-03-27 08:22:00,29.8,25.7,29.75,WNW,292,0.0,0.0,85,0.00,,,0.00,WUHU21623XXSP,2013-03-27 12:22:00,
2013-03-27 08:24:00,29.8,25.9,29.75,WNW,292,0.0,0.0,85,0.00,,,0.00,WUHU21623XXSP,2013-03-27 12:24:00,
2013-03-27 08:25:00,30.0,25.9,29.75,WNW,292,0.0,0.0,84,0.00,,,0.00,WUHU21623XXSP,2013-03-27 12:25:00,
2013-03-27 08:27:00,30.0,25.8,29.75,WNW,292,0.0,0.0,84,0.00,,,0.00,WUHU21623XXSP,2013-03-27 12:27:00,
2013-03-27 08:29:00,30.4,25.8,29.75,WNW,292,0.0,0.0,84,0.00,,,0.00,WUHU21623XXSP,2013-03-27 12:29:00,
2013-03-27 08:31:00,30.6,26.0,29.75,West,270,0.0,0.0,83,0.00,,,0.00,WUHU21623XXSP,2013-03-27 12:31:00,
2013-03-27 08:32:00,30.6,26.0,29.75,West,270,0.0,0.0,83,0.00,,,0.00,WUHU21623XXSP,2013-03-27 12:32:00,
2013-03-27 08:34:00,30.7,26.0,29.75,West,270,0.0,0.0,83,0.00,,,0.00,WUHU21623XXSP,2013-03-27 12:34:00,
2013-03-27 08:36:00,30.7,26.2,29.75,WNW,292,0.0,0.0,83,0.00,,,0.00,WUHU21623XXSP,2013-03-27 12:36:00,
2013-03-27 08:38:00,30.9,26.2,29.75,WNW,292,0.0,0.0,83,0.00,,,0.00,WUHU21623XXSP,2013-03-27 12:38:00,
2013-03-27 08:39:00,30.9,26.2,29.75,WNW,292,0.0,0.0,83,0.00,,,0.00,WUHU21623XXSP,2013-03-27 12:39:00,
2013-03-27 08:40:00,31.3,26.5,29.75,NW,315,0.0,0.0,82,0.00,,,0.00,WUHU21623XXSP,2013-03-27 12:40:00,
2013-03-27 08:42:00,31.3,26.5,29.75,NW,315,0.0,0.0,82,0.00,,,0.00,WUHU21623XXSP,2013-03-27 12:42:00,
2013-03-27 08:43:00,31.3,26.5,29.75,WNW,292,0.0,0.0,82,0.00,,,0.00,WUHU21623XXSP,2013-03-27 12:43:00,
2013-03-27 08:45:00,31.3,26.5,29.75,WNW,292,0.0,0.0,82,0.00,,,0.00,WUHU21623XXSP,2013-03-27 12:45:00,
2013-03-27 08:47:00,31.6,26.5,29.75,NW,315,0.0,0.0,81,0.00,,,0.00,WUHU21623XXSP,2013-03-27 12:47:00,
2013-03-27 08:48:00,31.8,26.7,29.75,WNW,292,0.0,0.0,81,0.00,,,0.00,WUHU21623XXSP,2013-03-27 12:48:00,
2013-03-27 08:50:00,31.8,26.7,29.75,WNW,292,0.0,0.0,81,0.00,,,0.00,WUHU21623XXSP,2013-03-27 12:50:00,
2013-03-27 08:52:00,31.8,26.4,29.75,WNW,292,0.0,0.0,80,0.00,,,0.00,WUHU21623XXSP,2013-03-27 12:52:00,
2013-03-27 08:53:00,31.8,26.4,29.75,WNW,292,0.0,0.0,80,0.00,,,0.00,WUHU21623XXSP,2013-03-27 12:53:00,
2013-03-27 08:55:00,32.2,26.8,29.75,West,270,0.0,0.0,80,0.00,,,0.00,WUHU21623XXSP,2013-03-27 12:55:00,
2013-03-27 08:57:00,32.4,26.6,29.75,WNW,292,0.0,0.0,79,0.00,,,0.00,WUHU21623XXSP,2013-03-27 12:57:00,
2013-03-27 08:58:00,32.4,26.6,29.75,WNW,292,0.0,0.0,79,0.00,,,0.00,WUHU21623XXSP,2013-03-27 12:58:00,
2013-03-27 09:00:00,32.5,26.8,29.75,WNW,292,0.0,0.0,79,0.00,,,0.00,WUHU21623XXSP,2013-03-27 13:00:00,
2013-03-27 09:03:00,32.7,26.9,29.76,WNW,292,0.0,0.0,79,0.00,,,0.00,WUHU21623XXSP,2013-03-27 13:03:00,
2013-03-27 09:04:00,32.7,26.6,29.76,WNW,292,0.0,0.0,78,0.00,,,0.00,WUHU21623XXSP,2013-03-27 13:04:00,
2013-03-27 09:05:00,32.9,26.8,29.76,WNW,292,0.0,0.0,78,0.00,,,0.00,WUHU21623XXSP,2013-03-27 13:05:00,
2013-03-27 09:08:00,33.1,26.8,29.76,WNW,292,0.0,0.0,78,0.00,,,0.00,WUHU21623XXSP,2013-03-27 13:08:00,
2013-03-27 09:09:00,33.1,26.8,29.76,WNW,292,0.0,0.0,78,0.00,,,0.00,WUHU21623XXSP,2013-03-27 13:09:00,
2013-03-27 09:10:00,33.4,26.6,29.76,WNW,292,0.0,0.0,76,0.00,,,0.00,WUHU21623XXSP,2013-03-27 13:10:00,
2013-03-27 09:11:00,33.4,26.6,29.76,WNW,292,0.0,0.0,76,0.00,,,0.00,WUHU21623XXSP,2013-03-27 13:11:00,
2013-03-27 09:13:00,33.4,26.6,29.76,WNW,292,0.0,0.0,76,0.00,,,0.00,WUHU21623XXSP,2013-03-27 13:13:00,
2013-03-27 09:14:00,33.6,26.6,29.76,WNW,292,0.0,0.0,76,0.00,,,0.00,WUHU21623XXSP,2013-03-27 13:14:00,
2013-03-27 09:16:00,33.6,26.6,29.76,WNW,292,0.0,0.0,76,0.00,,,0.00,WUHU21623XXSP,2013-03-27 13:16:00,
2013-03-27 09:19:00,34.0,26.5,29.76,WNW,292,0.0,0.0,74,0.00,,,0.00,WUHU21623XXSP,2013-03-27 13:19:00,
2013-03-27 09:21:00,34.2,26.5,29.76,WNW,292,0.0,0.0,74,0.00,,,0.00,WUHU21623XXSP,2013-03-27 13:21:00,
2013-03-27 09:22:00,34.2,26.5,29.76,WNW,292,0.0,0.0,74,0.00,,,0.00,WUHU21623XXSP,2013-03-27 13:22:00,
2013-03-27 09:24:00,34.3,26.8,29.76,WNW,292,0.0,0.0,74,0.00,,,0.00,WUHU21623XXSP,2013-03-27 13:24:00,
2013-03-27 09:26:00,34.3,26.5,29.76,WNW,292,0.0,0.0,73,0.00,,,0.00,WUHU21623XXSP,2013-03-27 13:26:00,
2013-03-27 09:27:00,34.3,26.5,29.76,WNW,292,0.0,0.0,73,0.00,,,0.00,WUHU21623XXSP,2013-03-27 13:27:00,
2013-03-27 09:29:00,34.5,26.5,29.76,WNW,292,0.0,0.0,73,0.00,,,0.00,WUHU21623XXSP,2013-03-27 13:29:00,
2013-03-27 09:30:00,34.5,26.5,29.76,WNW,292,0.0,0.0,73,0.00,,,0.00,WUHU21623XXSP,2013-03-27 13:30:00,
2013-03-27 09:31:00,34.5,26.7,29.76,WNW,292,0.0,0.0,73,0.00,,,0.00,WUHU21623XXSP,2013-03-27 13:31:00,
2013-03-27 09:32:00,34.5,26.7,29.76,WNW,292,0.0,0.0,73,0.00,,,0.00,WUHU21623XXSP,2013-03-27 13:32:00,
2013-03-27 09:35:00,34.9,27.0,29.76,WNW,292,0.0,0.0,73,0.00,,,0.00,WUHU21623XXSP,2013-03-27 13:35:00,
2013-03-27 09:36:00,34.9,27.0,29.76,WNW,292,0.0,0.0,73,0.00,,,0.00,WUHU21623XXSP,2013-03-27 13:36:00,
2013-03-27 09:38:00,35.2,27.0,29.76,WNW,292,0.0,0.0,73,0.00,,,0.00,WUHU21623XXSP,2013-03-27 13:38:00,
2013-03-27 09:40:00,35.2,27.1,29.77,WNW,292,0.0,0.0,72,0.00,,,0.00,WUHU21623XXSP,2013-03-27 13:40:00,
2013-03-27 09:42:00,35.4,27.2,29.76,WNW,292,0.0,0.0,72,0.00,,,0.00,WUHU21623XXSP,2013-03-27 13:42:00,
2013-03-27 09:43:00,35.4,27.2,29.76,WNW,292,0.0,0.0,72,0.00,,,0.00,WUHU21623XXSP,2013-03-27 13:43:00,
2013-03-27 09:45:00,35.4,26.9,29.76,NW,315,0.0,0.0,71,0.00,,,0.00,WUHU21623XXSP,2013-03-27 13:45:00,
2013-03-27 09:47:00,35.8,27.6,29.76,WNW,292,0.0,0.0,72,0.00,,,0.00,WUHU21623XXSP,2013-03-27 13:47:00,
2013-03-27 09:49:00,35.8,27.3,29.76,NW,315,0.0,0.0,71,0.00,,,0.00,WUHU21623XXSP,2013-03-27 13:49:00,
2013-03-27 09:50:00,35.8,27.3,29.76,NW,315,0.0,0.0,71,0.00,,,0.00,WUHU21623XXSP,2013-03-27 13:50:00,
2013-03-27 09:52:00,35.8,27.3,29.76,WNW,292,0.0,0.0,71,0.00,,,0.00,WUHU21623XXSP,2013-03-27 13:52:00,
2013-03-27 09:54:00,36.1,27.3,29.76,NNW,337,0.0,0.0,70,0.00,,,0.00,WUHU21623XXSP,2013-03-27 13:54:00,
2013-03-27 09:55:00,36.1,27.3,29.76,NNW,337,0.0,0.0,70,0.00,,,0.00,WUHU21623XXSP,2013-03-27 13:55:00,
2013-03-27 09:57:00,36.3,27.5,29.76,WNW,292,0.0,0.0,70,0.00,,,0.00,WUHU21623XXSP,2013-03-27 13:57:00,
2013-03-27 09:59:00,36.5,27.3,29.76,NW,315,0.0,0.0,69,0.00,,,0.00,WUHU21623XXSP,2013-03-27 13:59:00,
2013-03-27 10:00:00,36.5,27.3,29.76,NW,315,0.0,0.0,69,0.00,,,0.00,WUHU21623XXSP,2013-03-27 14:00:00,
2013-03-27 10:03:00,36.5,27.3,29.76,NW,315,0.0,0.0,68,0.00,,,0.00,WUHU21623XXSP,2013-03-27 14:03:00,
2013-03-27 10:04:00,36.7,26.9,29.76,WNW,292,0.0,0.0,68,0.00,,,0.00,WUHU21623XXSP,2013-03-27 14:04:00,
2013-03-27 10:05:00,36.9,27.3,29.76,WNW,292,0.0,0.0,68,0.00,,,0.00,WUHU21623XXSP,2013-03-27 14:05:00,
2013-03-27 10:06:00,36.9,27.3,29.76,WNW,292,0.0,0.0,68,0.00,,,0.00,WUHU21623XXSP,2013-03-27 14:06:00,
2013-03-27 10:08:00,37.0,27.3,29.76,WNW,292,0.0,0.0,67,0.00,,,0.00,WUHU21623XXSP,2013-03-27 14:08:00,
2013-03-27 10:09:00,37.0,27.3,29.76,WNW,292,0.0,0.0,67,0.00,,,0.00,WUHU21623XXSP,2013-03-27 14:09:00,
2013-03-27 10:11:00,37.0,27.1,29.76,WNW,292,0.0,0.0,67,0.00,,,0.00,WUHU21623XXSP,2013-03-27 14:11:00,
2013-03-27 10:13:00,37.2,27.1,29.76,WNW,292,0.0,0.0,68,0.00,,,0.00,WUHU21623XXSP,2013-03-27 14:13:00,
2013-03-27 10:15:00,37.2,27.6,29.76,WNW,292,0.0,0.0,66,0.00,,,0.00,WUHU21623XXSP,2013-03-27 14:15:00,
2013-03-27 10:16:00,37.2,27.6,29.76,WNW,292,0.0,0.0,66,0.00,,,0.00,WUHU21623XXSP,2013-03-27 14:16:00,
2013-03-27 10:18:00,37.4,27.1,29.76,NW,315,0.0,0.0,66,0.00,,,0.00,WUHU21623XXSP,2013-03-27 14:18:00,
2013-03-27 10:20:00,37.4,27.1,29.76,NW,315,0.0,0.0,66,0.00,,,0.00,WUHU21623XXSP,2013-03-27 14:20:00,
2013-03-27 10:21:00,37.6,27.2,29.75,WNW,292,0.0,0.0,66,0.00,,,0.00,WUHU21623XXSP,2013-03-27 14:21:00,
2013-03-27 10:23:00,37.8,27.0,29.76,WNW,292,0.0,0.0,65,0.00,,,0.00,WUHU21623XXSP,2013-03-27 14:23:00,
2013-03-27 10:25:00,37.9,27.2,29.76,NW,315,0.0,0.0,65,0.00,,,0.00,WUHU21623XXSP,2013-03-27 14:25:00,
2013-03-27 10:26:00,37.9,27.2,29.76,NW,315,0.0,0.0,65,0.00,,,0.00,WUHU21623XXSP,2013-03-27 14:26:00,
2013-03-27 10:28:00,37.9,27.2,29.76,NW,315,0.0,0.0,63,0.00,,,0.00,WUHU21623XXSP,2013-03-27 14:28:00,
2013-03-27 10:30:00,38.1,26.4,29.76,NW,315,0.0,0.0,64,0.00,,,0.00,WUHU21623XXSP,2013-03-27 14:30:00,
2013-03-27 10:32:00,38.3,26.7,29.76,NNW,337,0.0,0.0,63,0.00,,,0.00,WUHU21623XXSP,2013-03-27 14:32:00,
2013-03-27 10:33:00,38.5,26.9,29.76,WNW,292,0.0,0.0,63,0.00,,,0.00,WUHU21623XXSP,2013-03-27 14:33:00,
2013-03-27 10:36:00,38.5,26.9,29.76,WNW,292,0.0,0.0,63,0.00,,,0.00,WUHU21623XXSP,2013-03-27 14:36:00,
2013-03-27 10:37:00,38.5,26.9,29.76,WNW,292,0.0,0.0,63,0.00,,,0.00,WUHU21623XXSP,2013-03-27 14:37:00,
2013-03-27 10:39:00,38.5,26.9,29.76,NNW,337,0.0,0.0,63,0.00,,,0.00,WUHU21623XXSP,2013-03-27 14:39:00,
2013-03-27 10:41:00,38.8,26.9,29.76,WNW,292,0.0,0.0,62,0.00,,,0.00,WUHU21623XXSP,2013-03-27 14:41:00,
2013-03-27 10:42:00,39.0,26.9,29.76,WNW,292,0.0,0.0,62,0.00,,,0.00,WUHU21623XXSP,2013-03-27 14:42:00,
2013-03-27 10:44:00,39.0,27.0,29.76,NW,315,0.0,0.0,62,0.00,,,0.00,WUHU21623XXSP,2013-03-27 14:44:00,
2013-03-27 10:46:00,39.4,27.0,29.76,West,270,0.0,0.0,61,0.00,,,0.00,WUHU21623XXSP,2013-03-27 14:46:00,
2013-03-27 10:47:00,39.4,27.0,29.76,West,270,0.0,0.0,61,0.00,,,0.00,WUHU21623XXSP,2013-03-27 14:47:00,
2013-03-27 10:48:00,39.4,27.0,29.76,West,270,0.0,0.0,61,0.00,,,0.00,WUHU21623XXSP,2013-03-27 14:48:00,
2013-03-27 10:49:00,39.4,27.0,29.76,WNW,292,0.0,0.0,61,0.00,,,0.00,WUHU21623XXSP,2013-03-27 14:49:00,
2013-03-27 10:52:00,39.4,27.0,29.76,NW,315,0.0,0.0,61,0.00,,,0.00,WUHU21623XXSP,2013-03-27 14:52:00,
2013-03-27 10:53:00,39.6,26.8,29.76,WNW,292,0.0,0.0,60,0.00,,,0.00,WUHU21623XXSP,2013-03-27 14:53:00,
2013-03-27 10:54:00,39.6,26.8,29.76,WNW,292,0.0,0.0,60,0.00,,,0.00,WUHU21623XXSP,2013-03-27 14:54:00,
2013-03-27 10:57:00,39.7,26.5,29.76,WNW,292,0.0,0.0,59,0.00,,,0.00,WUHU21623XXSP,2013-03-27 14:57:00,
2013-03-27 10:58:00,39.7,26.5,29.76,WNW,292,0.0,0.0,59,0.00,,,0.00,WUHU21623XXSP,2013-03-27 14:58:00,
2013-03-27 10:59:00,39.7,27.0,29.76,WNW,292,0.0,0.0,60,0.00,,,0.00,WUHU21623XXSP,2013-03-27 14:59:00,
2013-03-27 11:02:00,39.9,27.1,29.76,WNW,292,0.0,0.0,60,0.00,,,0.00,WUHU21623XXSP,2013-03-27 15:02:00,
2013-03-27 11:03:00,39.9,27.1,29.76,WNW,292,0.0,0.0,60,0.00,,,0.00,WUHU21623XXSP,2013-03-27 15:03:00,
2013-03-27 11:05:00,39.9,27.1,29.76,WNW,292,0.0,0.0,60,0.00,,,0.00,WUHU21623XXSP,2013-03-27 15:05:00,
2013-03-27 11:08:00,40.3,27.1,29.76,NW,315,0.0,0.0,59,0.00,,,0.00,WUHU21623XXSP,2013-03-27 15:08:00,
2013-03-27 11:10:00,40.3,26.6,29.76,WNW,292,0.0,0.0,58,0.00,,,0.00,WUHU21623XXSP,2013-03-27 15:10:00,
2013-03-27 11:13:00,40.5,26.8,29.76,NW,315,0.0,0.0,58,0.00,,,0.00,WUHU21623XXSP,2013-03-27 15:13:00,
2013-03-27 11:15:00,40.5,26.8,29.76,NW,315,0.0,0.0,58,0.00,,,0.00,WUHU21623XXSP,2013-03-27 15:15:00,
2013-03-27 11:18:00,40.6,26.8,29.76,NW,315,0.0,0.0,58,0.00,,,0.00,WUHU21623XXSP,2013-03-27 15:18:00,
2013-03-27 11:20:00,40.8,27.6,29.76,WNW,292,0.0,0.0,59,0.00,,,0.00,WUHU21623XXSP,2013-03-27 15:20:00,
2013-03-27 11:23:00,41.0,27.3,29.76,NNW,337,0.0,0.0,58,0.00,,,0.00,WUHU21623XXSP,2013-03-27 15:23:00,
2013-03-27 11:24:00,41.0,27.3,29.76,NNW,337,0.0,0.0,58,0.00,,,0.00,WUHU21623XXSP,2013-03-27 15:24:00,
2013-03-27 11:25:00,41.2,27.9,29.76,WNW,292,0.0,0.0,59,0.00,,,0.00,WUHU21623XXSP,2013-03-27 15:25:00,
2013-03-27 11:28:00,41.2,27.5,29.76,WNW,292,0.0,0.0,58,0.00,,,0.00,WUHU21623XXSP,2013-03-27 15:28:00,
2013-03-27 11:29:00,41.5,28.3,29.77,WNW,292,0.0,0.0,59,0.00,,,0.00,WUHU21623XXSP,2013-03-27 15:29:00,
2013-03-27 11:30:00,41.5,28.3,29.77,WNW,292,0.0,0.0,59,0.00,,,0.00,WUHU21623XXSP,2013-03-27 15:30:00,
2013-03-27 11:33:00,41.7,27.5,29.76,WNW,292,0.0,0.0,57,0.00,,,0.00,WUHU21623XXSP,2013-03-27 15:33:00,
2013-03-27 11:34:00,41.7,27.5,29.76,WNW,292,0.0,0.0,57,0.00,,,0.00,WUHU21623XXSP,2013-03-27 15:34:00,
2013-03-27 11:35:00,41.7,27.5,29.76,WNW,292,0.0,0.0,57,0.00,,,0.00,WUHU21623XXSP,2013-03-27 15:35:00,
2013-03-27 11:38:00,41.9,27.7,29.77,WNW,292,0.0,0.0,58,0.00,,,0.00,WUHU21623XXSP,2013-03-27 15:38:00,
2013-03-27 11:39:00,41.9,27.7,29.77,WNW,292,0.0,0.0,58,0.00,,,0.00,WUHU21623XXSP,2013-03-27 15:39:00,
2013-03-27 11:40:00,42.1,27.9,29.76,West,270,0.0,0.0,57,0.00,,,0.00,WUHU21623XXSP,2013-03-27 15:40:00,
2013-03-27 11:43:00,42.1,27.0,29.76,West,270,0.0,0.0,55,0.00,,,0.00,WUHU21623XXSP,2013-03-27 15:43:00,
2013-03-27 11:44:00,42.1,27.4,29.76,WNW,292,0.0,0.0,56,0.00,,,0.00,WUHU21623XXSP,2013-03-27 15:44:00,
2013-03-27 11:45:00,42.1,27.4,29.76,WNW,292,0.0,0.0,56,0.00,,,0.00,WUHU21623XXSP,2013-03-27 15:45:00,
2013-03-27 11:49:00,42.4,27.8,29.76,West,270,0.0,0.0,56,0.00,,,0.00,WUHU21623XXSP,2013-03-27 15:49:00,
2013-03-27 11:50:00,42.4,27.3,29.76,West,270,0.0,0.0,55,0.00,,,0.00,WUHU21623XXSP,2013-03-27 15:50:00,
2013-03-27 11:54:00,42.4,27.3,29.77,WNW,292,0.0,0.0,55,0.00,,,0.00,WUHU21623XXSP,2013-03-27 15:54:00,
2013-03-27 11:56:00,42.6,27.5,29.77,NW,315,0.0,0.0,55,0.00,,,0.00,WUHU21623XXSP,2013-03-27 15:56:00,
2013-03-27 11:59:00,42.6,27.5,29.76,West,270,0.0,0.0,55,0.00,,,0.00,WUHU21623XXSP,2013-03-27 15:59:00,
2013-03-27 12:01:00,43.0,27.5,29.77,West,270,0.0,0.0,55,0.00,,,0.00,WUHU21623XXSP,2013-03-27 16:01:00,
2013-03-27 12:04:00,43.0,27.8,29.76,West,270,0.0,0.0,54,0.00,,,0.00,WUHU21623XXSP,2013-03-27 16:04:00,
2013-03-27 12:07:00,43.3,28.2,29.76,NNW,337,0.0,0.0,55,0.00,,,0.00,WUHU21623XXSP,2013-03-27 16:07:00,
2013-03-27 12:09:00,43.3,27.8,29.76,West,270,0.0,0.0,54,0.00,,,0.00,WUHU21623XXSP,2013-03-27 16:09:00,
2013-03-27 12:12:00,43.9,28.4,29.76,WNW,292,0.0,0.0,55,0.00,,,0.00,WUHU21623XXSP,2013-03-27 16:12:00,
2013-03-27 12:14:00,44.2,29.0,29.76,WNW,292,0.0,0.0,55,0.00,,,0.00,WUHU21623XXSP,2013-03-27 16:14:00,
2013-03-27 12:15:00,44.2,29.0,29.76,WNW,292,0.0,0.0,55,0.00,,,0.00,WUHU21623XXSP,2013-03-27 16:15:00,
2013-03-27 12:17:00,44.2,29.0,29.76,WNW,292,0.0,0.0,52,0.00,,,0.00,WUHU21623XXSP,2013-03-27 16:17:00,
2013-03-27 12:19:00,44.1,27.5,29.77,WNW,292,0.0,0.0,52,0.00,,,0.00,WUHU21623XXSP,2013-03-27 16:19:00,
2013-03-27 12:20:00,44.1,27.5,29.77,WNW,292,0.0,0.0,52,0.00,,,0.00,WUHU21623XXSP,2013-03-27 16:20:00,
2013-03-27 12:22:00,43.9,27.4,29.76,NW,315,0.0,0.0,52,0.00,,,0.00,WUHU21623XXSP,2013-03-27 16:22:00,
2013-03-27 12:24:00,44.1,27.5,29.76,WNW,292,0.0,0.0,52,0.00,,,0.00,WUHU21623XXSP,2013-03-27 16:24:00,
2013-03-27 12:25:00,43.9,26.9,29.76,WNW,292,0.0,0.0,51,0.00,,,0.00,WUHU21623XXSP,2013-03-27 16:25:00,
2013-03-27 12:27:00,43.7,27.2,29.76,WNW,292,0.0,0.0,52,0.00,,,0.00,WUHU21623XXSP,2013-03-27 16:27:00,
2013-03-27 12:29:00,43.9,27.4,29.76,NW,315,0.0,0.0,52,0.00,,,0.00,WUHU21623XXSP,2013-03-27 16:29:00,
2013-03-27 12:30:00,43.9,27.4,29.76,NW,315,0.0,0.0,52,0.00,,,0.00,WUHU21623XXSP,2013-03-27 16:30:00,
2013-03-27 12:32:00,44.1,27.1,29.76,NW,315,0.0,0.0,51,0.00,,,0.00,WUHU21623XXSP,2013-03-27 16:32:00,
2013-03-27 12:34:00,44.2,27.1,29.76,NW,315,0.0,0.0,52,0.00,,,0.00,WUHU21623XXSP,2013-03-27 16:34:00,
2013-03-27 12:35:00,44.4,27.9,29.76,WNW,292,0.0,0.0,52,0.00,,,0.00,WUHU21623XXSP,2013-03-27 16:35:00,
2013-03-27 12:38:00,44.8,27.3,29.76,West,270,0.0,0.0,50,0.00,,,0.00,WUHU21623XXSP,2013-03-27 16:38:00,
2013-03-27 12:39:00,45.0,27.5,29.76,WNW,292,0.0,0.0,50,0.00,,,0.00,WUHU21623XXSP,2013-03-27 16:39:00,
2013-03-27 12:40:00,45.0,27.5,29.76,WNW,292,0.0,0.0,50,0.00,,,0.00,WUHU21623XXSP,2013-03-27 16:40:00,
2013-03-27 12:41:00,45.0,27.5,29.76,WNW,292,0.0,0.0,50,0.00,,,0.00,WUHU21623XXSP,2013-03-27 16:41:00,
2013-03-27 12:43:00,45.0,26.9,29.76,WNW,292,0.0,0.0,49,0.00,,,0.00,WUHU21623XXSP,2013-03-27 16:43:00,
2013-03-27 12:45:00,45.1,27.1,29.76,West,270,0.0,0.0,49,0.00,,,0.00,WUHU21623XXSP,2013-03-27 16:45:00,
2013-03-27 12:46:00,45.1,27.1,29.76,West,270,0.0,0.0,49,0.00,,,0.00,WUHU21623XXSP,2013-03-27 16:46:00,
2013-03-27 12:48:00,45.3,27.8,29.76,WNW,292,0.0,0.0,50,0.00,,,0.00,WUHU21623XXSP,2013-03-27 16:48:00,
2013-03-27 12:50:00,45.3,27.8,29.76,WNW,292,0.0,0.0,50,0.00,,,0.00,WUHU21623XXSP,2013-03-27 16:50:00,
2013-03-27 12:51:00,45.5,27.9,29.76,WNW,292,0.0,0.0,50,0.00,,,0.00,WUHU21623XXSP,2013-03-27 16:51:00,
2013-03-27 12:53:00,45.7,28.1,29.76,WNW,292,0.0,0.0,50,0.00,,,0.00,WUHU21623XXSP,2013-03-27 16:53:00,
2013-03-27 12:55:00,45.7,27.6,29.76,NNW,337,0.0,0.0,49,0.00,,,0.00,WUHU21623XXSP,2013-03-27 16:55:00,
2013-03-27 12:56:00,45.7,27.6,29.76,NNW,337,0.0,0.0,49,0.00,,,0.00,WUHU21623XXSP,2013-03-27 16:56:00,
2013-03-27 12:58:00,45.7,27.0,29.76,West,270,0.0,0.0,48,0.00,,,0.00,WUHU21623XXSP,2013-03-27 16:58:00,
2013-03-27 13:00:00,45.7,27.0,29.76,NW,315,0.0,0.0,48,0.00,,,0.00,WUHU21623XXSP,2013-03-27 17:00:00,
2013-03-27 13:01:00,45.7,27.6,29.76,WNW,292,0.0,0.0,49,0.00,,,0.00,WUHU21623XXSP,2013-03-27 17:01:00,
2013-03-27 13:02:00,45.7,27.6,29.76,WNW,292,0.0,0.0,49,0.00,,,0.00,WUHU21623XXSP,2013-03-27 17:02:00,
2013-03-27 13:03:00,46.0,28.4,29.75,WNW,292,0.0,0.0,50,0.00,,,0.00,WUHU21623XXSP,2013-03-27 17:03:00,
2013-03-27 13:05:00,46.0,28.4,29.75,WNW,292,0.0,0.0,50,0.00,,,0.00,WUHU21623XXSP,2013-03-27 17:05:00,
2013-03-27 13:07:00,46.0,27.9,29.76,West,270,0.0,0.0,49,0.00,,,0.00,WUHU21623XXSP,2013-03-27 17:07:00,
2013-03-27 13:08:00,46.0,28.4,29.76,WNW,292,0.0,0.0,50,0.00,,,0.00,WUHU21623XXSP,2013-03-27 17:08:00,
2013-03-27 13:10:00,46.2,28.6,29.75,West,270,0.0,0.0,50,0.00,,,0.00,WUHU21623XXSP,2013-03-27 17:10:00,
2013-03-27 13:12:00,46.6,28.4,29.75,WNW,292,0.0,0.0,49,0.00,,,0.00,WUHU21623XXSP,2013-03-27 17:12:00,
2013-03-27 13:14:00,46.6,28.4,29.76,WNW,292,0.0,0.0,48,0.00,,,0.00,WUHU21623XXSP,2013-03-27 17:14:00,
2013-03-27 13:15:00,46.6,28.4,29.76,WNW,292,0.0,0.0,48,0.00,,,0.00,WUHU21623XXSP,2013-03-27 17:15:00,
2013-03-27 13:17:00,46.6,27.3,29.75,WNW,292,0.0,0.0,47,0.00,,,0.00,WUHU21623XXSP,2013-03-27 17:17:00,
2013-03-27 13:19:00,46.6,27.8,29.75,WNW,292,0.0,0.0,48,0.00,,,0.00,WUHU21623XXSP,2013-03-27 17:19:00,
2013-03-27 13:20:00,46.6,27.8,29.75,WNW,292,0.0,0.0,48,0.00,,,0.00,WUHU21623XXSP,2013-03-27 17:20:00,
2013-03-27 13:22:00,46.8,28.0,29.75,WNW,292,0.0,0.0,48,0.00,,,0.00,WUHU21623XXSP,2013-03-27 17:22:00,
2013-03-27 13:23:00,46.8,28.0,29.75,WNW,292,0.0,0.0,48,0.00,,,0.00,WUHU21623XXSP,2013-03-27 17:23:00,
2013-03-27 13:24:00,46.8,28.0,29.75,WNW,292,0.0,0.0,48,0.00,,,0.00,WUHU21623XXSP,2013-03-27 17:24:00,
2013-03-27 13:25:00,46.9,27.6,29.75,West,270,0.0,0.0,47,0.00,,,0.00,WUHU21623XXSP,2013-03-27 17:25:00,
2013-03-27 13:27:00,47.1,27.8,29.75,North,0,0.0,0.0,47,0.00,,,0.00,WUHU21623XXSP,2013-03-27 17:27:00,
2013-03-27 13:28:00,47.1,27.8,29.75,North,0,0.0,0.0,47,0.00,,,0.00,WUHU21623XXSP,2013-03-27 17:28:00,
2013-03-27 13:29:00,46.9,27.6,29.75,NW,315,0.0,0.0,47,0.00,,,0.00,WUHU21623XXSP,2013-03-27 17:29:00,
2013-03-27 13:30:00,46.9,27.6,29.75,NW,315,0.0,0.0,47,0.00,,,0.00,WUHU21623XXSP,2013-03-27 17:30:00,
2013-03-27 13:32:00,47.1,28.3,29.75,NW,315,0.0,0.0,48,0.00,,,0.00,WUHU21623XXSP,2013-03-27 17:32:00,
2013-03-27 13:33:00,47.5,29.2,29.75,WNW,292,0.0,0.0,49,0.00,,,0.00,WUHU21623XXSP,2013-03-27 17:33:00,
2013-03-27 13:34:00,47.5,29.2,29.75,WNW,292,0.0,0.0,49,0.00,,,0.00,WUHU21623XXSP,2013-03-27 17:34:00,
2013-03-27 13:35:00,48.0,28.6,29.75,WNW,292,0.0,0.0,47,0.00,,,0.00,WUHU21623XXSP,2013-03-27 17:35:00,
2013-03-27 13:37:00,48.4,28.9,29.75,WNW,292,0.0,0.0,47,0.00,,,0.00,WUHU21623XXSP,2013-03-27 17:37:00,
2013-03-27 13:38:00,48.4,28.9,29.75,WNW,292,0.0,0.0,47,0.00,,,0.00,WUHU21623XXSP,2013-03-27 17:38:00,
2013-03-27 13:39:00,48.6,28.6,29.75,WNW,292,0.0,0.0,46,0.00,,,0.00,WUHU21623XXSP,2013-03-27 17:39:00,
2013-03-27 13:40:00,48.6,28.6,29.75,WNW,292,0.0,0.0,46,0.00,,,0.00,WUHU21623XXSP,2013-03-27 17:40:00,
2013-03-27 13:43:00,48.4,28.4,29.75,WNW,292,0.0,0.0,46,0.00,,,0.00,WUHU21623XXSP,2013-03-27 17:43:00,
2013-03-27 13:44:00,48.0,27.5,29.75,WNW,292,0.0,0.0,45,0.00,,,0.00,WUHU21623XXSP,2013-03-27 17:44:00,
2013-03-27 13:45:00,48.0,27.5,29.75,WNW,292,0.0,0.0,45,0.00,,,0.00,WUHU21623XXSP,2013-03-27 17:45:00,
2013-03-27 13:49:00,47.7,27.9,29.75,WNW,292,0.0,0.0,46,0.00,,,0.00,WUHU21623XXSP,2013-03-27 17:49:00,
2013-03-27 13:50:00,47.8,27.9,29.75,West,270,0.0,0.0,46,0.00,,,0.00,WUHU21623XXSP,2013-03-27 17:50:00,
2013-03-27 13:54:00,47.8,27.4,29.75,WNW,292,0.0,0.0,45,0.00,,,0.00,WUHU21623XXSP,2013-03-27 17:54:00,
2013-03-27 13:55:00,47.8,27.4,29.75,WNW,292,0.0,0.0,45,0.00,,,0.00,WUHU21623XXSP,2013-03-27 17:55:00,
2013-03-27 13:56:00,47.8,27.4,29.75,WNW,292,0.0,0.0,45,0.00,,,0.00,WUHU21623XXSP,2013-03-27 17:56:00,
2013-03-27 13:59:00,47.8,27.4,29.75,WNW,292,0.0,0.0,45,0.00,,,0.00,WUHU21623XXSP,2013-03-27 17:59:00,
2013-03-27 14:00:00,47.8,27.4,29.75,WNW,292,0.0,0.0,45,0.00,,,0.00,WUHU21623XXSP,2013-03-27 18:00:00,
2013-03-27 14:01:00,47.5,27.0,29.75,WNW,292,0.0,0.0,45,0.00,,,0.00,WUHU21623XXSP,2013-03-27 18:01:00,
2013-03-27 14:04:00,47.3,26.9,29.75,WNW,292,0.0,0.0,45,0.00,,,0.00,WUHU21623XXSP,2013-03-27 18:04:00,
2013-03-27 14:05:00,47.3,26.9,29.75,WNW,292,0.0,0.0,45,0.00,,,0.00,WUHU21623XXSP,2013-03-27 18:05:00,
2013-03-27 14:07:00,47.1,26.9,29.75,WNW,292,0.0,0.0,46,0.00,,,0.00,WUHU21623XXSP,2013-03-27 18:07:00,
2013-03-27 14:09:00,47.1,27.2,29.75,WNW,292,0.0,0.0,46,0.00,,,0.00,WUHU21623XXSP,2013-03-27 18:09:00,
2013-03-27 14:10:00,46.9,27.1,29.75,WNW,292,0.0,0.0,46,0.00,,,0.00,WUHU21623XXSP,2013-03-27 18:10:00,
2013-03-27 14:12:00,46.9,27.1,29.75,WNW,292,0.0,0.0,46,0.00,,,0.00,WUHU21623XXSP,2013-03-27 18:12:00,
2013-03-27 14:14:00,46.8,26.9,29.75,WNW,292,0.0,0.0,46,0.00,,,0.00,WUHU21623XXSP,2013-03-27 18:14:00,
2013-03-27 14:15:00,46.8,26.9,29.75,WNW,292,0.0,0.0,46,0.00,,,0.00,WUHU21623XXSP,2013-03-27 18:15:00,
2013-03-27 14:17:00,46.6,26.9,29.75,WNW,292,0.0,0.0,46,0.00,,,0.00,WUHU21623XXSP,2013-03-27 18:17:00,
2013-03-27 14:19:00,46.6,26.8,29.75,WNW,292,0.0,0.0,46,0.00,,,0.00,WUHU21623XXSP,2013-03-27 18:19:00,
2013-03-27 14:20:00,46.6,26.8,29.75,WNW,292,0.0,0.0,46,0.00,,,0.00,WUHU21623XXSP,2013-03-27 18:20:00,
2013-03-27 14:23:00,46.8,27.3,29.75,WNW,292,0.0,0.0,47,0.00,,,0.00,WUHU21623XXSP,2013-03-27 18:23:00,
2013-03-27 14:24:00,46.8,27.3,29.75,WNW,292,0.0,0.0,47,0.00,,,0.00,WUHU21623XXSP,2013-03-27 18:24:00,
2013-03-27 14:25:00,46.8,27.5,29.75,WNW,292,0.0,0.0,47,0.00,,,0.00,WUHU21623XXSP,2013-03-27 18:25:00,
2013-03-27 14:29:00,47.1,27.8,29.74,WSW,247,0.0,0.0,47,0.00,,,0.00,WUHU21623XXSP,2013-03-27 18:29:00,
2013-03-27 14:30:00,47.1,27.8,29.74,WSW,247,0.0,0.0,47,0.00,,,0.00,WUHU21623XXSP,2013-03-27 18:30:00,
2013-03-27 14:31:00,47.1,27.8,29.74,WSW,247,0.0,0.0,47,0.00,,,0.00,WUHU21623XXSP,2013-03-27 18:31:00,
2013-03-27 14:34:00,47.7,27.7,29.74,WNW,292,0.0,0.0,46,0.00,,,0.00,WUHU21623XXSP,2013-03-27 18:34:00,
2013-03-27 14:35:00,47.7,27.7,29.74,WNW,292,0.0,0.0,46,0.00,,,0.00,WUHU21623XXSP,2013-03-27 18:35:00,
2013-03-27 14:36:00,47.5,27.6,29.75,West,270,0.0,0.0,46,0.00,,,0.00,WUHU21623XXSP,2013-03-27 18:36:00,
2013-03-27 14:42:00,47.1,27.2,29.74,West,270,0.0,0.0,46,0.00,,,0.00,WUHU21623XXSP,2013-03-27 18:42:00,
2013-03-27 14:47:00,46.9,27.1,29.74,WSW,247,0.0,0.0,46,0.00,,,0.00,WUHU21623XXSP,2013-03-27 18:47:00,
2013-03-27 14:52:00,47.1,27.1,29.74,NW,315,0.0,0.0,47,0.00,,,0.00,WUHU21623XXSP,2013-03-27 18:52:00,
2013-03-27 14:53:00,47.1,27.1,29.74,NW,315,0.0,0.0,47,0.00,,,0.00,WUHU21623XXSP,2013-03-27 18:53:00,
2013-03-27 14:58:00,47.1,27.2,29.74,WNW,292,0.0,0.0,46,0.00,,,0.00,WUHU21623XXSP,2013-03-27 18:58:00,
2013-03-27 15:03:00,47.1,27.2,29.74,WNW,292,0.0,0.0,46,0.00,,,0.00,WUHU21623XXSP,2013-03-27 19:03:00,
2013-03-27 15:08:00,46.9,27.1,29.74,WNW,292,0.0,0.0,46,0.00,,,0.00,WUHU21623XXSP,2013-03-27 19:08:00,
2013-03-27 15:09:00,46.9,27.1,29.74,WNW,292,0.0,0.0,46,0.00,,,0.00,WUHU21623XXSP,2013-03-27 19:09:00,
2013-03-27 15:13:00,46.9,27.6,29.74,West,270,0.0,0.0,47,0.00,,,0.00,WUHU21623XXSP,2013-03-27 19:13:00,
2013-03-27 15:14:00,46.8,27.6,29.74,West,270,0.0,0.0,46,0.00,,,0.00,WUHU21623XXSP,2013-03-27 19:14:00,
2013-03-27 15:18:00,46.6,26.8,29.74,WNW,292,0.0,0.0,46,0.00,,,0.00,WUHU21623XXSP,2013-03-27 19:18:00,
2013-03-27 15:19:00,46.6,26.8,29.74,WNW,292,0.0,0.0,46,0.00,,,0.00,WUHU21623XXSP,2013-03-27 19:19:00,
2013-03-27 15:23:00,46.2,27.0,29.74,West,270,0.0,0.0,47,0.00,,,0.00,WUHU21623XXSP,2013-03-27 19:23:00,
2013-03-27 15:24:00,46.2,27.0,29.74,West,270,0.0,0.0,47,0.00,,,0.00,WUHU21623XXSP,2013-03-27 19:24:00,
2013-03-27 15:28:00,46.6,27.3,29.74,West,270,0.0,0.0,47,0.00,,,0.00,WUHU21623XXSP,2013-03-27 19:28:00,
2013-03-27 15:29:00,46.4,27.1,29.74,West,270,0.0,0.0,47,0.00,,,0.00,WUHU21623XXSP,2013-03-27 19:29:00,
2013-03-27 15:33:00,46.6,27.3,29.74,West,270,0.0,0.0,47,0.00,,,0.00,WUHU21623XXSP,2013-03-27 19:33:00,
2013-03-27 15:34:00,46.6,27.3,29.74,West,270,0.0,0.0,47,0.00,,,0.00,WUHU21623XXSP,2013-03-27 19:34:00,
2013-03-27 15:39:00,46.6,27.3,29.74,WNW,292,0.0,0.0,47,0.00,,,0.00,WUHU21623XXSP,2013-03-27 19:39:00,
2013-03-27 15:44:00,46.2,27.0,29.74,NW,315,0.0,0.0,47,0.00,,,0.00,WUHU21623XXSP,2013-03-27 19:44:00,
2013-03-27 15:45:00,46.2,27.0,29.74,NW,315,0.0,0.0,47,0.00,,,0.00,WUHU21623XXSP,2013-03-27 19:45:00,
2013-03-27 15:49:00,46.2,27.5,29.74,WNW,292,0.0,0.0,48,0.00,,,0.00,WUHU21623XXSP,2013-03-27 19:49:00,
2013-03-27 15:50:00,46.2,27.5,29.74,WNW,292,0.0,0.0,48,0.00,,,0.00,WUHU21623XXSP,2013-03-27 19:50:00,
2013-03-27 15:54:00,46.6,27.0,29.73,West,270,0.0,0.0,47,0.00,,,0.00,WUHU21623XXSP,2013-03-27 19:54:00,
2013-03-27 15:55:00,46.6,27.0,29.73,West,270,0.0,0.0,47,0.00,,,0.00,WUHU21623XXSP,2013-03-27 19:55:00,
2013-03-27 15:59:00,46.4,27.1,29.73,WNW,292,0.0,0.0,47,0.00,,,0.00,WUHU21623XXSP,2013-03-27 19:59:00,
2013-03-27 16:00:00,46.4,27.1,29.73,WNW,292,0.0,0.0,47,0.00,,,0.00,WUHU21623XXSP,2013-03-27 20:00:00,
2013-03-27 16:04:00,46.2,27.1,29.74,WNW,292,0.0,0.0,47,0.00,,,0.00,WUHU21623XXSP,2013-03-27 20:04:00,
2013-03-27 16:05:00,46.2,27.1,29.74,WNW,292,0.0,0.0,47,0.00,,,0.00,WUHU21623XXSP,2013-03-27 20:05:00,
2013-03-27 16:10:00,46.6,27.3,29.73,WNW,292,0.0,0.0,47,0.00,,,0.00,WUHU21623XXSP,2013-03-27 20:10:00,
2013-03-27 16:15:00,46.6,27.3,29.73,West,270,0.0,0.0,47,0.00,,,0.00,WUHU21623XXSP,2013-03-27 20:15:00,
2013-03-27 16:20:00,46.8,27.3,29.74,West,270,0.0,0.0,47,0.00,,,0.00,WUHU21623XXSP,2013-03-27 20:20:00,
2013-03-27 16:25:00,46.9,27.1,29.73,WNW,292,0.0,0.0,46,0.00,,,0.00,WUHU21623XXSP,2013-03-27 20:25:00,
2013-03-27 16:26:00,46.9,27.1,29.73,WNW,292,0.0,0.0,46,0.00,,,0.00,WUHU21623XXSP,2013-03-27 20:26:00,
2013-03-27 16:30:00,47.1,27.2,29.74,WNW,292,0.0,0.0,46,0.00,,,0.00,WUHU21623XXSP,2013-03-27 20:30:00,
2013-03-27 16:31:00,47.1,27.2,29.74,WNW,292,0.0,0.0,46,0.00,,,0.00,WUHU21623XXSP,2013-03-27 20:31:00,
2013-03-27 16:35:00,47.1,27.2,29.74,WNW,292,0.0,0.0,46,0.00,,,0.00,WUHU21623XXSP,2013-03-27 20:35:00,
2013-03-27 16:36:00,47.1,27.2,29.74,WNW,292,0.0,0.0,46,0.00,,,0.00,WUHU21623XXSP,2013-03-27 20:36:00,
2013-03-27 16:41:00,46.9,26.5,29.73,WNW,292,0.0,0.0,45,0.00,,,0.00,WUHU21623XXSP,2013-03-27 20:41:00,
2013-03-27 16:42:00,46.9,26.5,29.73,West,270,0.0,0.0,45,0.00,,,0.00,WUHU21623XXSP,2013-03-27 20:42:00,
2013-03-27 16:46:00,46.9,27.1,29.73,WSW,247,0.0,0.0,46,0.00,,,0.00,WUHU21623XXSP,2013-03-27 20:46:00,
2013-03-27 16:47:00,46.9,27.1,29.73,WSW,247,0.0,0.0,46,0.00,,,0.00,WUHU21623XXSP,2013-03-27 20:47:00,
2013-03-27 16:51:00,46.8,26.9,29.73,WNW,292,0.0,0.0,46,0.00,,,0.00,WUHU21623XXSP,2013-03-27 20:51:00,
2013-03-27 16:52:00,46.8,26.9,29.73,WNW,292,0.0,0.0,46,0.00,,,0.00,WUHU21623XXSP,2013-03-27 20:52:00,
2013-03-27 16:57:00,46.6,26.8,29.73,WNW,292,0.0,0.0,46,0.00,,,0.00,WUHU21623XXSP,2013-03-27 20:57:00,
2013-03-27 17:02:00,46.4,26.6,29.73,West,270,0.0,0.0,46,0.00,,,0.00,WUHU21623XXSP,2013-03-27 21:02:00,
2013-03-27 17:03:00,46.6,26.8,29.73,West,270,0.0,0.0,46,0.00,,,0.00,WUHU21623XXSP,2013-03-27 21:03:00,
2013-03-27 17:07:00,46.6,26.8,29.73,WSW,247,0.0,0.0,46,0.00,,,0.00,WUHU21623XXSP,2013-03-27 21:07:00,
2013-03-27 17:08:00,46.6,26.8,29.73,West,270,0.0,0.0,46,0.00,,,0.00,WUHU21623XXSP,2013-03-27 21:08:00,
2013-03-27 17:12:00,46.2,26.6,29.73,West,270,0.0,0.0,46,0.00,,,0.00,WUHU21623XXSP,2013-03-27 21:12:00,
2013-03-27 17:13:00,46.2,26.6,29.73,West,270,0.0,0.0,46,0.00,,,0.00,WUHU21623XXSP,2013-03-27 21:13:00,
2013-03-27 17:17:00,46.2,26.4,29.73,WNW,292,0.0,0.0,46,0.00,,,0.00,WUHU21623XXSP,2013-03-27 21:17:00,
2013-03-27 17:18:00,46.2,26.4,29.73,WNW,292,0.0,0.0,46,0.00,,,0.00,WUHU21623XXSP,2013-03-27 21:18:00,
2013-03-27 17:23:00,45.7,26.0,29.73,WNW,292,0.0,0.0,46,0.00,,,0.00,WUHU21623XXSP,2013-03-27 21:23:00,
2013-03-27 17:24:00,45.7,26.0,29.73,WNW,292,0.0,0.0,46,0.00,,,0.00,WUHU21623XXSP,2013-03-27 21:24:00,
2013-03-27 17:28:00,45.9,26.0,29.73,WNW,292,0.0,0.0,47,0.00,,,0.00,WUHU21623XXSP,2013-03-27 21:28:00,
2013-03-27 17:29:00,45.9,26.7,29.73,WNW,292,0.0,0.0,46,0.00,,,0.00,WUHU21623XXSP,2013-03-27 21:29:00,
2013-03-27 17:33:00,46.0,26.3,29.73,West,270,0.0,0.0,46,0.00,,,0.00,WUHU21623XXSP,2013-03-27 21:33:00,
2013-03-27 17:34:00,46.0,26.3,29.73,West,270,0.0,0.0,46,0.00,,,0.00,WUHU21623XXSP,2013-03-27 21:34:00,
2013-03-27 17:38:00,46.2,26.4,29.73,WNW,292,0.0,0.0,46,0.00,,,0.00,WUHU21623XXSP,2013-03-27 21:38:00,
2013-03-27 17:39:00,46.2,26.4,29.73,WNW,292,0.0,0.0,46,0.00,,,0.00,WUHU21623XXSP,2013-03-27 21:39:00,
2013-03-27 17:43:00,46.2,26.4,29.73,WNW,292,0.0,0.0,46,0.00,,,0.00,WUHU21623XXSP,2013-03-27 21:43:00,
2013-03-27 17:44:00,46.2,25.9,29.73,WNW,292,0.0,0.0,45,0.00,,,0.00,WUHU21623XXSP,2013-03-27 21:44:00,
2013-03-27 17:49:00,46.2,26.4,29.73,WNW,292,0.0,0.0,46,0.00,,,0.00,WUHU21623XXSP,2013-03-27 21:49:00,
2013-03-27 17:50:00,46.2,26.4,29.73,WNW,292,0.0,0.0,46,0.00,,,0.00,WUHU21623XXSP,2013-03-27 21:50:00,
2013-03-27 17:54:00,46.0,26.3,29.73,WNW,292,0.0,0.0,46,0.00,,,0.00,WUHU21623XXSP,2013-03-27 21:54:00,
2013-03-27 17:55:00,46.0,26.3,29.73,WNW,292,0.0,0.0,46,0.00,,,0.00,WUHU21623XXSP,2013-03-27 21:55:00,
2013-03-27 17:59:00,46.0,26.3,29.73,WNW,292,0.0,0.0,46,0.00,,,0.00,WUHU21623XXSP,2013-03-27 21:59:00,
2013-03-27 18:00:00,46.0,26.3,29.73,WNW,292,0.0,0.0,46,0.00,,,0.00,WUHU21623XXSP,2013-03-27 22:00:00,
2013-03-27 18:04:00,46.2,26.4,29.73,West,270,0.0,0.0,46,0.00,,,0.00,WUHU21623XXSP,2013-03-27 22:04:00,
2013-03-27 18:05:00,46.2,26.4,29.73,West,270,0.0,0.0,46,0.00,,,0.00,WUHU21623XXSP,2013-03-27 22:05:00,
2013-03-27 18:10:00,46.0,26.3,29.74,West,270,0.0,0.0,46,0.00,,,0.00,WUHU21623XXSP,2013-03-27 22:10:00,
2013-03-27 18:15:00,46.0,26.3,29.74,NW,315,0.0,0.0,46,0.00,,,0.00,WUHU21623XXSP,2013-03-27 22:15:00,
2013-03-27 18:20:00,45.7,26.5,29.74,West,270,0.0,0.0,47,0.00,,,0.00,WUHU21623XXSP,2013-03-27 22:20:00,
2013-03-27 18:25:00,45.3,26.2,29.74,WNW,292,0.0,0.0,47,0.00,,,0.00,WUHU21623XXSP,2013-03-27 22:25:00,
2013-03-27 18:26:00,45.3,26.2,29.74,WNW,292,0.0,0.0,47,0.00,,,0.00,WUHU21623XXSP,2013-03-27 22:26:00,
2013-03-27 18:30:00,45.1,26.0,29.74,WNW,292,0.0,0.0,47,0.00,,,0.00,WUHU21623XXSP,2013-03-27 22:30:00,
2013-03-27 18:32:00,45.1,26.5,29.74,WNW,292,0.0,0.0,48,0.00,,,0.00,WUHU21623XXSP,2013-03-27 22:32:00,
2013-03-27 18:35:00,45.0,26.4,29.74,WNW,292,0.0,0.0,48,0.00,,,0.00,WUHU21623XXSP,2013-03-27 22:35:00,
2013-03-27 18:36:00,45.0,26.4,29.74,WNW,292,0.0,0.0,48,0.00,,,0.00,WUHU21623XXSP,2013-03-27 22:36:00,
2013-03-27 18:37:00,45.0,26.4,29.74,WNW,292,0.0,0.0,48,0.00,,,0.00,WUHU21623XXSP,2013-03-27 22:37:00,
2013-03-27 18:41:00,45.0,26.4,29.74,WNW,292,0.0,0.0,48,0.00,,,0.00,WUHU21623XXSP,2013-03-27 22:41:00,
2013-03-27 18:42:00,44.8,26.2,29.74,WNW,292,0.0,0.0,48,0.00,,,0.00,WUHU21623XXSP,2013-03-27 22:42:00,
2013-03-27 18:46:00,44.4,26.2,29.74,WNW,292,0.0,0.0,48,0.00,,,0.00,WUHU21623XXSP,2013-03-27 22:46:00,
2013-03-27 18:47:00,44.4,26.2,29.74,WNW,292,0.0,0.0,48,0.00,,,0.00,WUHU21623XXSP,2013-03-27 22:47:00,
2013-03-27 18:51:00,44.4,25.9,29.74,West,270,0.0,0.0,48,0.00,,,0.00,WUHU21623XXSP,2013-03-27 22:51:00,
2013-03-27 18:52:00,44.4,25.9,29.74,West,270,0.0,0.0,48,0.00,,,0.00,WUHU21623XXSP,2013-03-27 22:52:00,
2013-03-27 18:53:00,44.4,25.9,29.74,WNW,292,0.0,0.0,48,0.00,,,0.00,WUHU21623XXSP,2013-03-27 22:53:00,
2013-03-27 18:56:00,44.1,25.6,29.74,West,270,0.0,0.0,48,0.00,,,0.00,WUHU21623XXSP,2013-03-27 22:56:00,
2013-03-27 18:57:00,44.1,25.6,29.74,West,270,0.0,0.0,48,0.00,,,0.00,WUHU21623XXSP,2013-03-27 22:57:00,
2013-03-27 18:58:00,44.1,25.6,29.74,West,270,0.0,0.0,48,0.00,,,0.00,WUHU21623XXSP,2013-03-27 22:58:00,
2013-03-27 19:02:00,43.9,26.0,29.74,West,270,0.0,0.0,49,0.00,,,0.00,WUHU21623XXSP,2013-03-27 23:02:00,
2013-03-27 19:03:00,43.7,25.8,29.75,West,270,0.0,0.0,49,0.00,,,0.00,WUHU21623XXSP,2013-03-27 23:03:00,
2013-03-27 19:07:00,43.5,25.6,29.75,WNW,292,0.0,0.0,49,0.00,,,0.00,WUHU21623XXSP,2013-03-27 23:07:00,
2013-03-27 19:08:00,43.5,25.6,29.75,WNW,292,0.0,0.0,49,0.00,,,0.00,WUHU21623XXSP,2013-03-27 23:08:00,
2013-03-27 19:12:00,43.3,26.2,29.74,WNW,292,0.0,0.0,50,0.00,,,0.00,WUHU21623XXSP,2013-03-27 23:12:00,
2013-03-27 19:13:00,43.3,26.2,29.74,WNW,292,0.0,0.0,50,0.00,,,0.00,WUHU21623XXSP,2013-03-27 23:13:00,
2013-03-27 19:17:00,43.2,25.8,29.74,West,270,0.0,0.0,50,0.00,,,0.00,WUHU21623XXSP,2013-03-27 23:17:00,
2013-03-27 19:18:00,43.0,25.7,29.75,West,270,0.0,0.0,50,0.00,,,0.00,WUHU21623XXSP,2013-03-27 23:18:00,
2013-03-27 19:19:00,43.0,25.7,29.75,West,270,0.0,0.0,50,0.00,,,0.00,WUHU21623XXSP,2013-03-27 23:19:00,
2013-03-27 19:22:00,43.0,26.1,29.74,WNW,292,0.0,0.0,51,0.00,,,0.00,WUHU21623XXSP,2013-03-27 23:22:00,
2013-03-27 19:23:00,43.0,26.1,29.74,WNW,292,0.0,0.0,51,0.00,,,0.00,WUHU21623XXSP,2013-03-27 23:23:00,
2013-03-27 19:24:00,43.0,26.1,29.74,WNW,292,0.0,0.0,51,0.00,,,0.00,WUHU21623XXSP,2013-03-27 23:24:00,
2013-03-27 19:28:00,42.6,25.8,29.75,WNW,292,0.0,0.0,51,0.00,,,0.00,WUHU21623XXSP,2013-03-27 23:28:00,
2013-03-27 19:29:00,42.6,25.8,29.75,West,270,0.0,0.0,51,0.00,,,0.00,WUHU21623XXSP,2013-03-27 23:29:00,
2013-03-27 19:33:00,42.6,25.8,29.75,WNW,292,0.0,0.0,51,0.00,,,0.00,WUHU21623XXSP,2013-03-27 23:33:00,
2013-03-27 19:34:00,42.6,25.8,29.75,WNW,292,0.0,0.0,51,0.00,,,0.00,WUHU21623XXSP,2013-03-27 23:34:00,
2013-03-27 19:38:00,42.4,26.0,29.75,West,270,0.0,0.0,52,0.00,,,0.00,WUHU21623XXSP,2013-03-27 23:38:00,
2013-03-27 19:39:00,42.4,26.0,29.75,West,270,0.0,0.0,52,0.00,,,0.00,WUHU21623XXSP,2013-03-27 23:39:00,
2013-03-27 19:43:00,42.1,25.7,29.75,WNW,292,0.0,0.0,52,0.00,,,0.00,WUHU21623XXSP,2013-03-27 23:43:00,
2013-03-27 19:44:00,42.1,26.1,29.75,WNW,292,0.0,0.0,53,0.00,,,0.00,WUHU21623XXSP,2013-03-27 23:44:00,
2013-03-27 19:48:00,41.7,25.8,29.75,WNW,292,0.0,0.0,53,0.00,,,0.00,WUHU21623XXSP,2013-03-27 23:48:00,
2013-03-27 19:49:00,41.7,25.8,29.75,WNW,292,0.0,0.0,53,0.00,,,0.00,WUHU21623XXSP,2013-03-27 23:49:00,
2013-03-27 19:53:00,41.7,25.8,29.75,WNW,292,0.0,0.0,53,0.00,,,0.00,WUHU21623XXSP,2013-03-27 23:53:00,
2013-03-27 19:54:00,41.7,25.8,29.75,WNW,292,0.0,0.0,53,0.00,,,0.00,WUHU21623XXSP,2013-03-27 23:54:00,
2013-03-27 19:55:00,41.7,25.8,29.75,WNW,292,0.0,0.0,53,0.00,,,0.00,WUHU21623XXSP,2013-03-27 23:55:00,
2013-03-27 19:59:00,41.5,26.0,29.75,WNW,292,0.0,0.0,54,0.00,,,0.00,WUHU21623XXSP,2013-03-27 23:59:00,
2013-03-27 20:00:00,41.5,26.0,29.75,WNW,292,0.0,0.0,54,0.00,,,0.00,WUHU21623XXSP,2013-03-28 00:00:00,
2013-03-27 20:04:00,41.2,25.7,29.75,WNW,292,0.0,0.0,54,0.00,,,0.00,WUHU21623XXSP,2013-03-28 00:04:00,
2013-03-27 20:05:00,41.2,25.7,29.75,WNW,292,0.0,0.0,54,0.00,,,0.00,WUHU21623XXSP,2013-03-28 00:05:00,
2013-03-27 20:09:00,40.8,25.3,29.75,WNW,292,0.0,0.0,54,0.00,,,0.00,WUHU21623XXSP,2013-03-28 00:09:00,
2013-03-27 20:10:00,40.8,25.3,29.75,WNW,292,0.0,0.0,54,0.00,,,0.00,WUHU21623XXSP,2013-03-28 00:10:00,
2013-03-27 20:14:00,40.8,25.8,29.75,West,270,0.0,0.0,55,0.00,,,0.00,WUHU21623XXSP,2013-03-28 00:14:00,
2013-03-27 20:15:00,40.8,25.8,29.75,West,270,0.0,0.0,55,0.00,,,0.00,WUHU21623XXSP,2013-03-28 00:15:00,
2013-03-27 20:16:00,40.6,25.6,29.75,WNW,292,0.0,0.0,55,0.00,,,0.00,WUHU21623XXSP,2013-03-28 00:16:00,
2013-03-27 20:19:00,40.5,25.4,29.75,WNW,292,0.0,0.0,55,0.00,,,0.00,WUHU21623XXSP,2013-03-28 00:19:00,
2013-03-27 20:20:00,40.3,25.4,29.75,WNW,292,0.0,0.0,55,0.00,,,0.00,WUHU21623XXSP,2013-03-28 00:20:00,
2013-03-27 20:22:00,40.3,25.3,29.75,WNW,292,0.0,0.0,55,0.00,,,0.00,WUHU21623XXSP,2013-03-28 00:22:00,
2013-03-27 20:25:00,40.1,25.6,29.75,WNW,292,0.0,0.0,56,0.00,,,0.00,WUHU21623XXSP,2013-03-28 00:25:00,
2013-03-27 20:26:00,39.9,25.4,29.76,WNW,292,0.0,0.0,56,0.00,,,0.00,WUHU21623XXSP,2013-03-28 00:26:00,
2013-03-27 20:27:00,39.9,25.4,29.76,WNW,292,0.0,0.0,56,0.00,,,0.00,WUHU21623XXSP,2013-03-28 00:27:00,
2013-03-27 20:30:00,39.7,25.2,29.76,West,270,0.0,0.0,56,0.00,,,0.00,WUHU21623XXSP,2013-03-28 00:30:00,
2013-03-27 20:32:00,39.7,25.2,29.76,West,270,0.0,0.0,56,0.00,,,0.00,WUHU21623XXSP,2013-03-28 00:32:00,
2013-03-27 20:33:00,39.7,25.2,29.76,WNW,292,0.0,0.0,56,0.00,,,0.00,WUHU21623XXSP,2013-03-28 00:33:00,
2013-03-27 20:36:00,39.6,25.0,29.76,WNW,292,0.0,0.0,56,0.00,,,0.00,WUHU21623XXSP,2013-03-28 00:36:00,
2013-03-27 20:38:00,39.4,25.3,29.76,WNW,292,0.0,0.0,57,0.00,,,0.00,WUHU21623XXSP,2013-03-28 00:38:00,
2013-03-27 20:41:00,39.0,25.0,29.76,West,270,0.0,0.0,57,0.00,,,0.00,WUHU21623XXSP,2013-03-28 00:41:00,
2013-03-27 20:43:00,39.0,25.0,29.76,West,270,0.0,0.0,57,0.00,,,0.00,WUHU21623XXSP,2013-03-28 00:43:00,
2013-03-27 20:46:00,38.8,24.8,29.77,West,270,0.0,0.0,57,0.00,,,0.00,WUHU21623XXSP,2013-03-28 00:46:00,
2013-03-27 20:48:00,38.5,24.5,29.77,WNW,292,0.0,0.0,57,0.00,,,0.00,WUHU21623XXSP,2013-03-28 00:48:00,
2013-03-27 20:49:00,38.5,24.5,29.77,WNW,292,0.0,0.0,57,0.00,,,0.00,WUHU21623XXSP,2013-03-28 00:49:00,
2013-03-27 20:52:00,38.3,24.7,29.77,WNW,292,0.0,0.0,58,0.00,,,0.00,WUHU21623XXSP,2013-03-28 00:52:00,
2013-03-27 20:53:00,38.1,24.6,29.77,WNW,292,0.0,0.0,58,0.00,,,0.00,WUHU21623XXSP,2013-03-28 00:53:00,
2013-03-27 20:54:00,38.1,24.6,29.77,WNW,292,0.0,0.0,58,0.00,,,0.00,WUHU21623XXSP,2013-03-28 00:54:00,
2013-03-27 20:57:00,37.9,24.9,29.77,West,270,0.0,0.0,59,0.00,,,0.00,WUHU21623XXSP,2013-03-28 00:57:00,
2013-03-27 20:58:00,37.9,24.9,29.77,West,270,0.0,0.0,59,0.00,,,0.00,WUHU21623XXSP,2013-03-28 00:58:00,
2013-03-27 20:59:00,37.9,24.9,29.77,West,270,0.0,0.0,59,0.00,,,0.00,WUHU21623XXSP,2013-03-28 00:59:00,
2013-03-27 21:02:00,37.9,24.9,29.77,WNW,292,0.0,0.0,59,0.00,,,0.00,WUHU21623XXSP,2013-03-28 01:02:00,
2013-03-27 21:03:00,37.8,24.9,29.77,WNW,292,0.0,0.0,59,0.00,,,0.00,WUHU21623XXSP,2013-03-28 01:03:00,
2013-03-27 21:04:00,37.8,24.9,29.77,WNW,292,0.0,0.0,59,0.00,,,0.00,WUHU21623XXSP,2013-03-28 01:04:00,
2013-03-27 21:07:00,37.6,24.5,29.77,West,270,0.0,0.0,59,0.00,,,0.00,WUHU21623XXSP,2013-03-28 01:07:00,
2013-03-27 21:08:00,37.6,24.5,29.77,West,270,0.0,0.0,59,0.00,,,0.00,WUHU21623XXSP,2013-03-28 01:08:00,
2013-03-27 21:09:00,37.6,24.5,29.77,West,270,0.0,0.0,59,0.00,,,0.00,WUHU21623XXSP,2013-03-28 01:09:00,
2013-03-27 21:12:00,37.2,24.2,29.77,West,270,0.0,0.0,59,0.00,,,0.00,WUHU21623XXSP,2013-03-28 01:12:00,
2013-03-27 21:13:00,37.0,24.0,29.77,West,270,0.0,0.0,59,0.00,,,0.00,WUHU21623XXSP,2013-03-28 01:13:00,
2013-03-27 21:14:00,37.0,24.0,29.77,West,270,0.0,0.0,59,0.00,,,0.00,WUHU21623XXSP,2013-03-28 01:14:00,
2013-03-27 21:15:00,36.9,24.3,29.77,West,270,0.0,0.0,60,0.00,,,0.00,WUHU21623XXSP,2013-03-28 01:15:00,
2013-03-27 21:18:00,36.5,24.0,29.77,West,270,0.0,0.0,60,0.00,,,0.00,WUHU21623XXSP,2013-03-28 01:18:00,
2013-03-27 21:19:00,36.5,24.0,29.77,West,270,0.0,0.0,60,0.00,,,0.00,WUHU21623XXSP,2013-03-28 01:19:00,
2013-03-27 21:21:00,36.3,23.8,29.77,West,270,0.0,0.0,60,0.00,,,0.00,WUHU21623XXSP,2013-03-28 01:21:00,
2013-03-27 21:23:00,36.1,24.0,29.77,WNW,292,0.0,0.0,61,0.00,,,0.00,WUHU21623XXSP,2013-03-28 01:23:00,
2013-03-27 21:24:00,36.1,24.0,29.77,WNW,292,0.0,0.0,61,0.00,,,0.00,WUHU21623XXSP,2013-03-28 01:24:00,
2013-03-27 21:26:00,36.0,23.9,29.77,WNW,292,0.0,0.0,61,0.00,,,0.00,WUHU21623XXSP,2013-03-28 01:26:00,
2013-03-27 21:29:00,36.0,23.9,29.77,WNW,292,0.0,0.0,61,0.00,,,0.00,WUHU21623XXSP,2013-03-28 01:29:00,
2013-03-27 21:31:00,36.0,24.2,29.77,WNW,292,0.0,0.0,62,0.00,,,0.00,WUHU21623XXSP,2013-03-28 01:31:00,
2013-03-27 21:34:00,36.0,24.2,29.77,WNW,292,0.0,0.0,62,0.00,,,0.00,WUHU21623XXSP,2013-03-28 01:34:00,
2013-03-27 21:35:00,36.0,24.2,29.77,WNW,292,0.0,0.0,62,0.00,,,0.00,WUHU21623XXSP,2013-03-28 01:35:00,
2013-03-27 21:36:00,36.0,24.2,29.77,West,270,0.0,0.0,62,0.00,,,0.00,WUHU21623XXSP,2013-03-28 01:36:00,
2013-03-27 21:39:00,35.8,24.1,29.78,WNW,292,0.0,0.0,62,0.00,,,0.00,WUHU21623XXSP,2013-03-28 01:39:00,
2013-03-27 21:40:00,35.8,24.1,29.78,WNW,292,0.0,0.0,62,0.00,,,0.00,WUHU21623XXSP,2013-03-28 01:40:00,
2013-03-27 21:42:00,35.8,24.1,29.78,West,270,0.0,0.0,62,0.00,,,0.00,WUHU21623XXSP,2013-03-28 01:42:00,
2013-03-27 21:44:00,35.8,24.1,29.78,West,270,0.0,0.0,62,0.00,,,0.00,WUHU21623XXSP,2013-03-28 01:44:00,
2013-03-27 21:45:00,35.8,24.1,29.78,West,270,0.0,0.0,62,0.00,,,0.00,WUHU21623XXSP,2013-03-28 01:45:00,
2013-03-27 21:48:00,36.0,24.2,29.78,West,270,0.0,0.0,62,0.00,,,0.00,WUHU21623XXSP,2013-03-28 01:48:00,
2013-03-27 21:49:00,36.0,24.2,29.78,West,270,0.0,0.0,62,0.00,,,0.00,WUHU21623XXSP,2013-03-28 01:49:00,
2013-03-27 21:50:00,36.0,24.2,29.78,West,270,0.0,0.0,62,0.00,,,0.00,WUHU21623XXSP,2013-03-28 01:50:00,
2013-03-27 21:53:00,36.0,24.2,29.78,WNW,292,0.0,0.0,62,0.00,,,0.00,WUHU21623XXSP,2013-03-28 01:53:00,
2013-03-27 21:54:00,36.0,24.2,29.78,WNW,292,0.0,0.0,62,0.00,,,0.00,WUHU21623XXSP,2013-03-28 01:54:00,
2013-03-27 21:55:00,36.0,24.2,29.78,WNW,292,0.0,0.0,62,0.00,,,0.00,WUHU21623XXSP,2013-03-28 01:55:00,
2013-03-27 21:56:00,36.0,24.2,29.78,West,270,0.0,0.0,62,0.00,,,0.00,WUHU21623XXSP,2013-03-28 01:56:00,
2013-03-27 21:58:00,36.0,24.2,29.77,WNW,292,0.0,0.0,62,0.00,,,0.00,WUHU21623XXSP,2013-03-28 01:58:00,
2013-03-27 22:00:00,36.0,24.2,29.77,WNW,292,0.0,0.0,62,0.00,,,0.00,WUHU21623XXSP,2013-03-28 02:00:00,
2013-03-27 22:02:00,36.0,24.2,29.78,WNW,292,0.0,0.0,62,0.00,,,0.00,WUHU21623XXSP,2013-03-28 02:02:00,
2013-03-27 22:03:00,35.8,24.1,29.78,West,270,0.0,0.0,62,0.00,,,0.00,WUHU21623XXSP,2013-03-28 02:03:00,
2013-03-27 22:05:00,35.8,24.1,29.78,WNW,292,0.0,0.0,62,0.00,,,0.00,WUHU21623XXSP,2013-03-28 02:05:00,
2013-03-27 22:07:00,35.8,24.1,29.78,WNW,292,0.0,0.0,62,0.00,,,0.00,WUHU21623XXSP,2013-03-28 02:07:00,
2013-03-27 22:08:00,35.8,24.1,29.78,WNW,292,0.0,0.0,62,0.00,,,0.00,WUHU21623XXSP,2013-03-28 02:08:00,
2013-03-27 22:10:00,35.8,24.1,29.78,West,270,0.0,0.0,62,0.00,,,0.00,WUHU21623XXSP,2013-03-28 02:10:00,
2013-03-27 22:12:00,35.8,24.1,29.78,WNW,292,0.0,0.0,62,0.00,,,0.00,WUHU21623XXSP,2013-03-28 02:12:00,
2013-03-27 22:13:00,35.8,24.1,29.78,West,270,0.0,0.0,62,0.00,,,0.00,WUHU21623XXSP,2013-03-28 02:13:00,
2013-03-27 22:15:00,35.6,23.9,29.78,WNW,292,0.0,0.0,62,0.00,,,0.00,WUHU21623XXSP,2013-03-28 02:15:00,
2013-03-27 22:16:00,35.6,23.9,29.78,WNW,292,0.0,0.0,62,0.00,,,0.00,WUHU21623XXSP,2013-03-28 02:16:00,
2013-03-27 22:17:00,35.6,23.9,29.78,WNW,292,0.0,0.0,62,0.00,,,0.00,WUHU21623XXSP,2013-03-28 02:17:00,
2013-03-27 22:19:00,35.4,24.1,29.78,WNW,292,0.0,0.0,63,0.00,,,0.00,WUHU21623XXSP,2013-03-28 02:19:00,
2013-03-27 22:21:00,35.4,24.1,29.78,WNW,292,0.0,0.0,63,0.00,,,0.00,WUHU21623XXSP,2013-03-28 02:21:00,
2013-03-27 22:22:00,35.4,24.1,29.78,WNW,292,0.0,0.0,63,0.00,,,0.00,WUHU21623XXSP,2013-03-28 02:22:00,
2013-03-27 22:24:00,35.4,24.1,29.78,WNW,292,0.0,0.0,63,0.00,,,0.00,WUHU21623XXSP,2013-03-28 02:24:00,
2013-03-27 22:26:00,35.2,23.9,29.78,West,270,0.0,0.0,63,0.00,,,0.00,WUHU21623XXSP,2013-03-28 02:26:00,
2013-03-27 22:27:00,35.2,23.9,29.78,West,270,0.0,0.0,63,0.00,,,0.00,WUHU21623XXSP,2013-03-28 02:27:00,
2013-03-27 22:28:00,35.2,23.9,29.78,WNW,292,0.0,0.0,63,0.00,,,0.00,WUHU21623XXSP,2013-03-28 02:28:00,
2013-03-27 22:31:00,35.2,23.9,29.78,West,270,0.0,0.0,63,0.00,,,0.00,WUHU21623XXSP,2013-03-28 02:31:00,
2013-03-27 22:32:00,35.2,23.9,29.78,West,270,0.0,0.0,63,0.00,,,0.00,WUHU21623XXSP,2013-03-28 02:32:00,
2013-03-27 22:34:00,34.9,23.5,29.78,WNW,292,0.0,0.0,63,0.00,,,0.00,WUHU21623XXSP,2013-03-28 02:34:00,
2013-03-27 22:37:00,34.9,23.5,29.79,WNW,292,0.0,0.0,63,0.00,,,0.00,WUHU21623XXSP,2013-03-28 02:37:00,
2013-03-27 22:38:00,34.9,23.5,29.79,WNW,292,0.0,0.0,63,0.00,,,0.00,WUHU21623XXSP,2013-03-28 02:38:00,
2013-03-27 22:39:00,34.9,23.5,29.79,WNW,292,0.0,0.0,63,0.00,,,0.00,WUHU21623XXSP,2013-03-28 02:39:00,
2013-03-27 22:42:00,34.7,23.4,29.78,WNW,292,0.0,0.0,63,0.00,,,0.00,WUHU21623XXSP,2013-03-28 02:42:00,
2013-03-27 22:43:00,34.7,23.4,29.79,West,270,0.0,0.0,63,0.00,,,0.00,WUHU21623XXSP,2013-03-28 02:43:00,
2013-03-27 22:44:00,34.5,23.2,29.79,NW,315,0.0,0.0,63,0.00,,,0.00,WUHU21623XXSP,2013-03-28 02:44:00,
2013-03-27 22:47:00,34.5,23.2,29.79,WNW,292,0.0,0.0,63,0.00,,,0.00,WUHU21623XXSP,2013-03-28 02:47:00,
2013-03-27 22:48:00,34.5,23.2,29.79,WNW,292,0.0,0.0,63,0.00,,,0.00,WUHU21623XXSP,2013-03-28 02:48:00,
2013-03-27 22:49:00,34.5,23.2,29.79,WNW,292,0.0,0.0,63,0.00,,,0.00,WUHU21623XXSP,2013-03-28 02:49:00,
2013-03-27 22:50:00,34.5,23.2,29.79,WNW,292,0.0,0.0,63,0.00,,,0.00,WUHU21623XXSP,2013-03-28 02:50:00,
2013-03-27 22:52:00,34.5,23.2,29.79,WNW,292,0.0,0.0,63,0.00,,,0.00,WUHU21623XXSP,2013-03-28 02:52:00,
2013-03-27 22:53:00,34.5,23.2,29.79,WNW,292,0.0,0.0,63,0.00,,,0.00,WUHU21623XXSP,2013-03-28 02:53:00,
2013-03-27 22:55:00,34.5,23.2,29.79,WNW,292,0.0,0.0,63,0.00,,,0.00,WUHU21623XXSP,2013-03-28 02:55:00,
2013-03-27 22:57:00,34.5,23.2,29.79,WNW,292,0.0,0.0,63,0.00,,,0.00,WUHU21623XXSP,2013-03-28 02:57:00,
2013-03-27 22:58:00,34.5,23.2,29.79,WNW,292,0.0,0.0,63,0.00,,,0.00,WUHU21623XXSP,2013-03-28 02:58:00,
2013-03-27 23:00:00,34.5,23.2,29.79,WNW,292,0.0,0.0,63,0.00,,,0.00,WUHU21623XXSP,2013-03-28 03:00:00,
2013-03-27 23:02:00,34.5,23.2,29.79,WNW,292,0.0,0.0,63,0.00,,,0.00,WUHU21623XXSP,2013-03-28 03:02:00,
2013-03-27 23:04:00,34.3,23.0,29.79,WNW,292,0.0,0.0,63,0.00,,,0.00,WUHU21623XXSP,2013-03-28 03:04:00,
2013-03-27 23:05:00,34.3,23.0,29.79,West,270,0.0,0.0,63,0.00,,,0.00,WUHU21623XXSP,2013-03-28 03:05:00,
2013-03-27 23:06:00,34.3,23.0,29.79,West,270,0.0,0.0,63,0.00,,,0.00,WUHU21623XXSP,2013-03-28 03:06:00,
2013-03-27 23:07:00,34.3,23.0,29.79,WNW,292,0.0,0.0,63,0.00,,,0.00,WUHU21623XXSP,2013-03-28 03:07:00,
2013-03-27 23:09:00,34.3,23.0,29.79,WNW,292,0.0,0.0,63,0.00,,,0.00,WUHU21623XXSP,2013-03-28 03:09:00,
2013-03-27 23:10:00,34.3,23.0,29.79,WNW,292,0.0,0.0,63,0.00,,,0.00,WUHU21623XXSP,2013-03-28 03:10:00,
2013-03-27 23:12:00,34.3,23.0,29.79,WNW,292,0.0,0.0,63,0.00,,,0.00,WUHU21623XXSP,2013-03-28 03:12:00,
2013-03-27 23:14:00,34.3,23.0,29.79,WNW,292,0.0,0.0,63,0.00,,,0.00,WUHU21623XXSP,2013-03-28 03:14:00,
2013-03-27 23:15:00,34.3,23.0,29.79,WNW,292,0.0,0.0,63,0.00,,,0.00,WUHU21623XXSP,2013-03-28 03:15:00,
2013-03-27 23:17:00,34.3,23.0,29.79,WNW,292,0.0,0.0,63,0.00,,,0.00,WUHU21623XXSP,2013-03-28 03:17:00,
2013-03-27 23:18:00,34.2,22.8,29.79,West,270,0.0,0.0,63,0.00,,,0.00,WUHU21623XXSP,2013-03-28 03:18:00,
2013-03-27 23:19:00,34.2,22.8,29.79,West,270,0.0,0.0,63,0.00,,,0.00,WUHU21623XXSP,2013-03-28 03:19:00,
2013-03-27 23:20:00,34.0,22.6,29.79,WNW,292,0.0,0.0,63,0.00,,,0.00,WUHU21623XXSP,2013-03-28 03:20:00,
2013-03-27 23:23:00,33.8,22.5,29.79,WNW,292,0.0,0.0,63,0.00,,,0.00,WUHU21623XXSP,2013-03-28 03:23:00,
2013-03-27 23:24:00,33.8,22.5,29.79,WNW,292,0.0,0.0,63,0.00,,,0.00,WUHU21623XXSP,2013-03-28 03:24:00,
2013-03-27 23:26:00,33.6,22.3,29.79,WNW,292,0.0,0.0,63,0.00,,,0.00,WUHU21623XXSP,2013-03-28 03:26:00,
2013-03-27 23:28:00,33.6,22.7,29.79,WNW,292,0.0,0.0,64,0.00,,,0.00,WUHU21623XXSP,2013-03-28 03:28:00,
2013-03-27 23:29:00,33.6,22.7,29.79,WNW,292,0.0,0.0,64,0.00,,,0.00,WUHU21623XXSP,2013-03-28 03:29:00,
2013-03-27 23:31:00,33.4,22.5,29.79,WNW,292,0.0,0.0,64,0.00,,,0.00,WUHU21623XXSP,2013-03-28 03:31:00,
2013-03-27 23:33:00,33.4,22.5,29.79,WNW,292,0.0,0.0,64,0.00,,,0.00,WUHU21623XXSP,2013-03-28 03:33:00,
2013-03-27 23:34:00,33.3,22.3,29.79,WNW,292,0.0,0.0,64,0.00,,,0.00,WUHU21623XXSP,2013-03-28 03:34:00,
2013-03-27 23:36:00,33.3,22.7,29.79,WNW,292,0.0,0.0,65,0.00,,,0.00,WUHU21623XXSP,2013-03-28 03:36:00,
2013-03-27 23:38:00,33.1,22.7,29.79,WNW,292,0.0,0.0,65,0.00,,,0.00,WUHU21623XXSP,2013-03-28 03:38:00,
2013-03-27 23:39:00,33.1,22.5,29.79,WNW,292,0.0,0.0,65,0.00,,,0.00,WUHU21623XXSP,2013-03-28 03:39:00,
2013-03-27 23:41:00,33.1,22.5,29.79,WNW,292,0.0,0.0,65,0.00,,,0.00,WUHU21623XXSP,2013-03-28 03:41:00,
2013-03-27 23:43:00,33.1,22.5,29.80,WNW,292,0.0,0.0,65,0.00,,,0.00,WUHU21623XXSP,2013-03-28 03:43:00,
2013-03-27 23:44:00,33.1,22.5,29.80,WNW,292,0.0,0.0,65,0.00,,,0.00,WUHU21623XXSP,2013-03-28 03:44:00,
2013-03-27 23:46:00,33.1,22.5,29.80,WNW,292,0.0,0.0,65,0.00,,,0.00,WUHU21623XXSP,2013-03-28 03:46:00,
2013-03-27 23:48:00,33.1,22.5,29.79,WNW,292,0.0,0.0,65,0.00,,,0.00,WUHU21623XXSP,2013-03-28 03:48:00,
2013-03-27 23:49:00,33.1,22.5,29.79,WNW,292,0.0,0.0,65,0.00,,,0.00,WUHU21623XXSP,2013-03-28 03:49:00,
2013-03-27 23:50:00,33.1,22.5,29.79,WNW,292,0.0,0.0,65,0.00,,,0.00,WUHU21623XXSP,2013-03-28 03:50:00,
2013-03-27 23:52:00,32.9,22.4,29.80,WNW,292,0.0,0.0,65,0.00,,,0.00,WUHU21623XXSP,2013-03-28 03:52:00,
2013-03-27 23:53:00,32.9,22.4,29.80,WNW,292,0.0,0.0,65,0.00,,,0.00,WUHU21623XXSP,2013-03-28 03:53:00,
2013-03-27 23:54:00,32.9,22.4,29.80,WNW,292,0.0,0.0,65,0.00,,,0.00,WUHU21623XXSP,2013-03-28 03:54:00,
2013-03-27 23:55:00,32.9,22.4,29.80,WNW,292,0.0,0.0,65,0.00,,,0.00,WUHU21623XXSP,2013-03-28 03:55:00,
2013-03-27 23:57:00,32.9,22.4,29.79,WNW,292,0.0,0.0,65,0.00,,,0.00,WUHU21623XXSP,2013-03-28 03:57:00,
2013-03-27 23:58:00,32.9,22.4,29.79,WNW,292,0.0,0.0,65,0.00,,,0.00,WUHU21623XXSP,2013-03-28 03:58:00,